[[{"header":{"parameterUnit":"m.s-1","parameterCategory":1,"la1":30.6,"la2":29.2853,"lo1":-89.7004,"lo2":-87.6739,"dy":0.0162,"dx":0.0183,"nx":112,"ny":82,"refTime":"2024-02-13T06:00:00:Z","depth":0,"parameterNumber":2,"parameterNumberName":"U-component_of_WINDS"},"data":[0.0,0.0,0.0,0.0,0.0,0.0,0.0,0.0,0.0,0.0,0.0,0.0,0.0,0.0,0.0,0.0,0.0,0.0,0.0,0.0,0.0,0.0,0.0,0.0,0.0,0.0,0.0,0.0,0.0,0.0,0.0,0.0,0.0,0.0,0.0,0.0,0.0,0.0,0.0,0.0,0.0,0.0,0.0,0.0,0.0,0.0,0.0,0.0,0.0,0.0,0.0,0.0,0.0,0.0,0.0,0.0,0.0,0.0,0.0,0.0,0.0,0.0,0.0,0.0,0.0,0.0,0.0,0.0,0.0,0.0,0.0,0.0,0.0,0.0,0.0,0.0,0.0,0.0,0.0,0.0,0.0,0.0,0.0,0.0,0.0,0.0,0.0,0.0,0.0,0.0,6.6914,6.6914,6.6914,6.6914,6.6914,6.6914,6.6872,6.6809,0.0,0.0,0.0,0.0,0.0,0.0,0.0,0.0,0.0,0.0,0.0,0.0,0.0,0.0,0.0,0.0,0.0,0.0,0.0,0.0,0.0,0.0,0.0,0.0,0.0,0.0,0.0,0.0,0.0,0.0,0.0,0.0,0.0,0.0,0.0,0.0,0.0,0.0,0.0,0.0,0.0,0.0,0.0,0.0,0.0,0.0,0.0,0.0,0.0,0.0,0.0,0.0,0.0,0.0,0.0,0.0,0.0,0.0,0.0,0.0,0.0,0.0,0.0,0.0,0.0,0.0,0.0,0.0,0.0,0.0,0.0,0.0,0.0,0.0,0.0,0.0,0.0,0.0,0.0,0.0,0.0,0.0,0.0,0.0,0.0,0.0,0.0,0.0,0.0,0.0,0.0,0.0,0.0,0.0,0.0,0.0,0.0,0.0,0.0,0.0,0.0,0.0,0.0,0.0,6.6914,6.6914,6.6914,6.6914,6.6914,6.6914,6.6914,6.6874,0.0,0.0,0.0,0.0,0.0,0.0,0.0,0.0,0.0,0.0,0.0,0.0,0.0,0.0,0.0,0.0,0.0,0.0,0.0,0.0,0.0,0.0,0.0,0.0,0.0,0.0,0.0,0.0,0.0,0.0,0.0,0.0,0.0,0.0,0.0,0.0,0.0,0.0,0.0,0.0,0.0,0.0,0.0,0.0,0.0,0.0,0.0,0.0,0.0,0.0,0.0,0.0,0.0,0.0,0.0,0.0,0.0,0.0,0.0,0.0,0.0,0.0,0.0,0.0,0.0,0.0,0.0,0.0,0.0,0.0,0.0,0.0,0.0,0.0,0.0,0.0,0.0,0.0,0.0,0.0,0.0,0.0,0.0,0.0,0.0,0.0,0.0,0.0,0.0,0.0,0.0,0.0,0.0,0.0,0.0,0.0,0.0,0.0,0.0,0.0,0.0,0.0,0.0,6.6914,6.6914,6.6914,6.6914,6.6914,6.6914,6.6914,6.6914,6.6914,6.6871,0.0,0.0,0.0,0.0,0.0,0.0,0.0,0.0,0.0,0.0,0.0,0.0,0.0,0.0,0.0,0.0,0.0,0.0,0.0,0.0,0.0,0.0,0.0,0.0,0.0,0.0,0.0,0.0,0.0,0.0,0.0,0.0,0.0,0.0,0.0,0.0,0.0,0.0,0.0,0.0,0.0,0.0,0.0,0.0,0.0,0.0,0.0,0.0,0.0,0.0,0.0,0.0,0.0,0.0,0.0,0.0,0.0,0.0,0.0,0.0,0.0,0.0,0.0,0.0,0.0,0.0,0.0,0.0,0.0,0.0,0.0,0.0,0.0,0.0,0.0,0.0,0.0,0.0,0.0,0.0,0.0,0.0,0.0,0.0,0.0,0.0,0.0,0.0,0.0,0.0,0.0,0.0,0.0,0.0,0.0,0.0,0.0,0.0,0.0,0.0,0.0,0.0,6.6914,6.6914,6.6914,6.6914,6.6914,6.6914,6.6914,6.6914,6.6914,6.6914,0.0,0.0,0.0,0.0,0.0,0.0,0.0,0.0,0.0,0.0,0.0,0.0,0.0,0.0,0.0,0.0,0.0,0.0,0.0,0.0,0.0,0.0,0.0,0.0,0.0,0.0,0.0,0.0,0.0,0.0,0.0,0.0,0.0,0.0,0.0,0.0,0.0,0.0,0.0,0.0,0.0,0.0,0.0,0.0,0.0,0.0,0.0,0.0,0.0,0.0,0.0,0.0,0.0,0.0,0.0,0.0,0.0,0.0,0.0,0.0,0.0,0.0,0.0,0.0,0.0,0.0,0.0,0.0,0.0,0.0,0.0,0.0,0.0,0.0,0.0,0.0,0.0,0.0,0.0,0.0,0.0,0.0,0.0,0.0,0.0,0.0,0.0,0.0,0.0,0.0,0.0,0.0,0.0,0.0,0.0,0.0,0.0,0.0,0.0,0.0,0.0,0.0,6.6914,6.6914,6.6914,6.6914,6.6914,6.6914,6.6914,6.6914,6.6914,6.6914,0.0,0.0,0.0,0.0,0.0,0.0,0.0,0.0,0.0,0.0,0.0,0.0,0.0,0.0,0.0,0.0,0.0,0.0,0.0,0.0,0.0,0.0,0.0,0.0,0.0,0.0,0.0,0.0,0.0,0.0,0.0,0.0,0.0,0.0,0.0,0.0,0.0,0.0,0.0,0.0,0.0,0.0,0.0,0.0,0.0,0.0,0.0,0.0,0.0,0.0,0.0,0.0,0.0,0.0,0.0,0.0,0.0,0.0,0.0,0.0,0.0,0.0,0.0,0.0,0.0,0.0,0.0,0.0,0.0,0.0,0.0,0.0,0.0,0.0,0.0,0.0,0.0,0.0,0.0,0.0,0.0,0.0,0.0,0.0,0.0,0.0,0.0,0.0,0.0,0.0,0.0,0.0,0.0,0.0,0.0,0.0,0.0,0.0,0.0,0.0,0.0,0.0,6.6914,6.6914,0.0,6.6914,6.6914,6.6914,6.6914,6.6914,6.6914,0.0,0.0,0.0,0.0,0.0,0.0,0.0,0.0,0.0,0.0,0.0,0.0,0.0,0.0,0.0,0.0,0.0,0.0,0.0,0.0,0.0,0.0,0.0,0.0,0.0,0.0,0.0,0.0,0.0,0.0,0.0,0.0,0.0,0.0,0.0,0.0,0.0,0.0,0.0,0.0,0.0,0.0,0.0,0.0,0.0,0.0,0.0,0.0,0.0,0.0,0.0,0.0,0.0,0.0,0.0,0.0,0.0,0.0,0.0,0.0,0.0,0.0,0.0,0.0,0.0,0.0,0.0,0.0,0.0,0.0,0.0,0.0,0.0,0.0,0.0,0.0,0.0,0.0,0.0,0.0,0.0,0.0,0.0,0.0,0.0,0.0,0.0,0.0,0.0,0.0,0.0,0.0,0.0,0.0,0.0,0.0,0.0,0.0,0.0,0.0,0.0,0.0,6.6914,6.6914,6.6914,0.0,6.6914,6.6914,6.6914,6.6914,6.6914,6.6914,0.0,0.0,0.0,0.0,0.0,0.0,0.0,0.0,0.0,0.0,0.0,0.0,0.0,0.0,0.0,0.0,0.0,0.0,0.0,0.0,0.0,0.0,0.0,0.0,0.0,0.0,0.0,0.0,0.0,0.0,0.0,0.0,0.0,0.0,0.0,0.0,0.0,0.0,0.0,0.0,0.0,0.0,0.0,0.0,0.0,0.0,0.0,0.0,0.0,0.0,0.0,0.0,0.0,0.0,0.0,0.0,0.0,0.0,0.0,0.0,0.0,0.0,0.0,0.0,0.0,0.0,0.0,0.0,0.0,0.0,0.0,0.0,0.0,0.0,0.0,0.0,0.0,0.0,0.0,0.0,0.0,0.0,0.0,0.0,0.0,0.0,0.0,0.0,0.0,0.0,0.0,0.0,0.0,0.0,0.0,0.0,0.0,0.0,0.0,0.0,0.0,0.0,6.6914,6.6914,6.6914,6.6914,6.6914,6.6914,6.6914,6.6914,6.6914,0.0,0.0,0.0,0.0,0.0,0.0,0.0,0.0,0.0,0.0,0.0,0.0,0.0,0.0,0.0,0.0,0.0,0.0,0.0,0.0,0.0,0.0,0.0,0.0,0.0,0.0,0.0,0.0,0.0,0.0,0.0,0.0,0.0,0.0,0.0,0.0,0.0,0.0,0.0,0.0,0.0,0.0,0.0,0.0,0.0,0.0,0.0,0.0,0.0,0.0,0.0,0.0,0.0,0.0,0.0,0.0,0.0,0.0,0.0,0.0,0.0,0.0,0.0,0.0,0.0,0.0,0.0,0.0,0.0,0.0,0.0,0.0,0.0,0.0,0.0,0.0,0.0,0.0,0.0,0.0,0.0,0.0,0.0,0.0,0.0,0.0,0.0,0.0,0.0,0.0,0.0,0.0,0.0,0.0,0.0,0.0,0.0,0.0,0.0,0.0,0.0,0.0,0.0,6.6914,6.6914,6.6914,6.6914,6.6914,6.6914,6.6914,6.6914,6.6914,6.6914,0.0,0.0,0.0,0.0,0.0,0.0,0.0,0.0,0.0,0.0,0.0,0.0,0.0,0.0,0.0,0.0,0.0,0.0,0.0,0.0,0.0,0.0,0.0,0.0,0.0,0.0,0.0,0.0,0.0,0.0,0.0,0.0,0.0,0.0,0.0,0.0,0.0,0.0,0.0,0.0,0.0,0.0,0.0,0.0,0.0,0.0,0.0,0.0,0.0,0.0,0.0,0.0,0.0,0.0,0.0,0.0,0.0,0.0,0.0,0.0,0.0,0.0,0.0,0.0,0.0,0.0,0.0,0.0,0.0,0.0,0.0,0.0,0.0,0.0,0.0,0.0,0.0,0.0,0.0,0.0,0.0,0.0,0.0,0.0,0.0,0.0,0.0,0.0,0.0,0.0,0.0,0.0,0.0,0.0,0.0,0.0,0.0,0.0,0.0,0.0,0.0,0.0,6.6914,6.6914,6.6914,6.6914,6.6914,6.6914,6.6914,6.6914,6.6914,6.6914,0.0,0.0,0.0,0.0,0.0,0.0,0.0,0.0,0.0,0.0,0.0,0.0,0.0,0.0,0.0,0.0,0.0,0.0,0.0,0.0,0.0,0.0,0.0,0.0,0.0,0.0,0.0,0.0,0.0,0.0,0.0,0.0,0.0,0.0,0.0,0.0,0.0,0.0,0.0,0.0,0.0,0.0,0.0,0.0,0.0,0.0,0.0,0.0,0.0,0.0,0.0,0.0,0.0,0.0,0.0,0.0,0.0,0.0,0.0,0.0,0.0,0.0,0.0,0.0,0.0,0.0,0.0,0.0,0.0,0.0,0.0,0.0,0.0,0.0,0.0,0.0,0.0,0.0,0.0,0.0,0.0,0.0,0.0,0.0,0.0,0.0,0.0,0.0,0.0,0.0,0.0,0.0,0.0,0.0,0.0,0.0,0.0,0.0,0.0,0.0,0.0,0.0,6.7109,6.7148,6.7148,6.7148,6.7148,6.7148,6.7148,6.707,6.7031,6.7031,0.0,0.0,0.0,0.0,0.0,0.0,0.0,0.0,0.0,0.0,0.0,0.0,0.0,0.0,0.0,0.0,0.0,0.0,0.0,0.0,0.0,0.0,0.0,0.0,0.0,0.0,0.0,0.0,0.0,0.0,0.0,0.0,0.0,0.0,0.0,0.0,0.0,0.0,0.0,0.0,0.0,0.0,0.0,0.0,0.0,0.0,0.0,0.0,0.0,0.0,0.0,0.0,0.0,0.0,0.0,0.0,0.0,0.0,0.0,0.0,6.6914,6.6914,0.0,0.0,0.0,0.0,0.0,0.0,0.0,0.0,0.0,0.0,0.0,0.0,0.0,0.0,0.0,0.0,0.0,0.0,0.0,0.0,0.0,0.0,0.0,0.0,0.0,0.0,0.0,0.0,0.0,0.0,0.0,0.0,0.0,0.0,0.0,0.0,0.0,0.0,0.0,0.0,6.8789,6.8867,6.8906,6.8945,6.8906,6.8906,6.8945,6.832,6.793,6.793,6.7265,0.0,0.0,0.0,0.0,0.0,0.0,0.0,0.0,0.0,0.0,0.0,0.0,0.0,0.0,0.0,0.0,0.0,0.0,0.0,0.0,0.0,0.0,0.0,0.0,0.0,0.0,0.0,0.0,0.0,0.0,0.0,0.0,0.0,0.0,0.0,0.0,0.0,0.0,0.0,0.0,0.0,0.0,0.0,0.0,0.0,0.0,0.0,0.0,0.0,0.0,0.0,0.0,0.0,0.0,0.0,0.0,0.0,0.0,0.0,6.6914,6.6914,0.0,0.0,0.0,0.0,0.0,0.0,0.0,0.0,0.0,0.0,0.0,0.0,0.0,0.0,0.0,0.0,0.0,0.0,0.0,0.0,0.0,0.0,0.0,0.0,0.0,0.0,0.0,0.0,0.0,0.0,0.0,0.0,0.0,0.0,0.0,0.0,0.0,0.0,0.0,0.0,6.9336,6.9414,6.9453,6.9453,6.9414,6.9414,6.9492,6.9062,6.8789,6.8828,6.8398,0.0,0.0,0.0,0.0,0.0,0.0,0.0,0.0,0.0,0.0,0.0,0.0,0.0,0.0,0.0,0.0,0.0,0.0,0.0,0.0,0.0,0.0,0.0,0.0,0.0,0.0,0.0,0.0,0.0,0.0,0.0,0.0,0.0,0.0,0.0,0.0,0.0,0.0,0.0,0.0,0.0,0.0,0.0,0.0,0.0,0.0,0.0,0.0,0.0,0.0,0.0,0.0,0.0,6.6914,6.6914,6.6914,6.6914,6.6914,6.6914,6.6914,6.6914,6.6914,6.6914,0.0,0.0,0.0,0.0,0.0,0.0,0.0,0.0,0.0,0.0,0.0,0.0,0.0,0.0,0.0,0.0,0.0,0.0,0.0,0.0,0.0,0.0,6.6914,6.6914,6.6914,6.6953,6.7109,0.0,0.0,0.0,0.0,0.0,0.0,0.0,0.0,0.0,0.0,0.0,6.9844,6.9883,6.9922,6.9844,6.9844,6.9883,6.9922,6.9765,6.9648,6.9726,6.957,6.918,0.0,0.0,0.0,0.0,0.0,0.0,0.0,0.0,0.0,0.0,0.0,0.0,0.0,0.0,0.0,0.0,0.0,0.0,0.0,0.0,0.0,0.0,0.0,0.0,0.0,0.0,0.0,0.0,0.0,0.0,0.0,0.0,6.6914,6.6914,0.0,0.0,0.0,0.0,0.0,0.0,0.0,0.0,0.0,0.0,0.0,0.0,0.0,6.6914,6.6914,6.6914,6.6914,6.6914,6.6914,6.6914,6.6914,6.6914,6.6914,6.6914,6.6914,0.0,6.6914,6.6914,0.0,0.0,0.0,0.0,0.0,0.0,0.0,0.0,0.0,0.0,0.0,0.0,0.0,0.0,0.0,0.0,0.0,0.0,0.0,0.0,0.0,0.0,6.6914,6.6914,6.6914,6.7109,6.7851,6.7422,6.7109,6.789,6.8047,6.8281,0.0,0.0,0.0,0.0,0.0,0.0,7.1562,7.164,7.168,7.164,7.164,7.164,7.168,7.0976,7.0547,7.0547,6.9883,6.9453,6.9336,6.9258,0.0,0.0,0.0,0.0,0.0,0.0,0.0,0.0,0.0,0.0,0.0,0.0,0.0,0.0,0.0,0.0,0.0,0.0,0.0,0.0,0.0,0.0,0.0,0.0,0.0,0.0,0.0,0.0,0.0,6.6914,6.6914,6.6914,6.6914,6.6914,0.0,0.0,0.0,0.0,0.0,0.0,0.0,0.0,0.0,6.6914,6.6914,6.6914,6.6914,6.6914,6.6914,6.6914,6.6914,6.6914,6.6914,6.6914,6.6914,6.6914,6.7422,6.7617,6.7578,6.7109,6.6914,6.6914,0.0,0.0,0.0,0.0,6.6914,6.6914,6.6914,6.6914,6.6914,6.6914,0.0,0.0,0.0,0.0,0.0,0.0,0.0,6.6914,6.6914,6.7265,6.7617,6.7617,6.7969,6.8398,6.8789,6.8555,6.8437,6.8867,6.8945,6.918,7.0,7.0117,0.0,0.0,0.0,7.1562,7.1953,7.1992,7.1992,7.1992,7.1992,7.1992,7.1992,7.164,7.1445,7.1445,7.1094,7.0703,7.0195,7.0156,6.9726,0.0,0.0,0.0,0.0,0.0,0.0,0.0,0.0,0.0,0.0,0.0,0.0,0.0,0.0,0.0,0.0,0.0,0.0,0.0,0.0,0.0,0.0,0.0,0.0,0.0,0.0,0.0,0.0,6.6914,6.6914,6.6914,6.6914,6.6914,0.0,0.0,0.0,0.0,0.0,0.0,6.6914,6.6914,6.6914,6.6914,6.6914,6.6992,6.7226,6.7226,6.7344,6.7539,6.7539,6.7539,6.7578,6.7578,6.7578,6.7578,6.8242,6.8515,6.8476,6.7812,6.7539,6.7539,6.7539,6.7539,6.7578,6.7578,6.7539,6.7539,6.7539,6.7539,6.7578,6.7539,6.7539,6.7578,6.7539,0.0,0.0,0.0,0.0,6.7539,6.7539,6.8008,6.8515,6.8515,6.8984,6.9453,6.9687,6.9726,6.9765,6.9805,6.9805,7.0078,7.0898,7.1015,0.0,7.1914,7.1992,7.1992,7.1992,7.1992,7.1992,7.1992,7.1992,7.1992,7.1992,7.1992,7.1992,7.1992,7.1992,7.1719,7.1055,7.1015,7.0625,6.9765,0.0,0.0,0.0,0.0,0.0,0.0,0.0,0.0,0.0,0.0,0.0,0.0,0.0,0.0,0.0,0.0,0.0,0.0,0.0,0.0,0.0,0.0,0.0,0.0,0.0,0.0,0.0,0.0,0.0,6.6914,6.6914,0.0,0.0,0.0,0.0,6.6914,6.6914,6.6914,6.6914,6.6914,6.6914,6.6914,6.6914,6.7305,6.8125,6.8125,6.8515,6.9258,6.9258,6.9297,6.9375,6.9375,6.9336,6.9297,6.9336,6.9375,6.9414,6.9336,6.9258,6.9258,6.9258,6.9297,6.9375,6.9375,6.9336,6.9258,6.9258,6.9336,6.9375,6.9297,6.9336,6.9375,6.9297,6.9336,0.0,0.0,6.9258,6.9258,6.9258,6.9297,6.9375,6.9414,6.9414,6.9648,7.0469,7.0625,7.0625,7.0625,7.0625,7.0937,7.1797,0.0,7.1953,7.1992,7.1992,7.1992,7.1992,7.1992,7.1992,7.1992,7.1992,7.1992,7.1992,7.1992,7.1992,7.1992,7.1992,7.1992,7.1953,7.1914,7.1523,7.0664,7.0586,0.0,0.0,0.0,0.0,0.0,0.0,0.0,0.0,0.0,0.0,0.0,0.0,0.0,0.0,0.0,0.0,0.0,0.0,0.0,0.0,0.0,0.0,0.0,0.0,0.0,0.0,0.0,0.0,6.6914,6.6914,0.0,6.6914,6.6914,6.6914,6.6914,6.6914,6.6914,6.6914,6.7422,6.7734,6.7734,6.8281,6.8711,6.8984,6.8984,6.914,6.9453,6.9453,6.9492,6.9492,6.9453,6.9414,6.9414,7.0,7.0234,7.0312,7.0859,7.043,6.9453,6.9453,6.9453,6.9453,6.9453,6.9453,6.9453,6.9414,6.9414,6.9453,6.9453,6.9492,6.9492,6.9414,6.9414,6.9453,6.9453,6.9453,6.9453,6.9414,6.9805,7.0234,7.0273,7.0664,7.1172,7.1484,7.1523,7.1523,7.1523,7.1523,7.164,7.1953,7.1992,7.1992,7.1992,7.1992,7.1992,7.1992,7.1992,7.1992,7.1992,7.1992,7.1992,7.1992,7.1992,7.1992,7.1992,7.1992,7.1992,7.1992,7.1992,7.1836,7.1523,7.0976,7.0428,0.0,0.0,0.0,0.0,0.0,0.0,0.0,0.0,0.0,0.0,0.0,0.0,0.0,0.0,0.0,0.0,0.0,0.0,0.0,0.0,0.0,0.0,0.0,0.0,0.0,0.0,6.6914,6.6914,6.6914,6.6914,6.6914,6.6914,6.7031,6.7305,6.7344,6.7461,6.7734,6.832,6.8633,6.8594,6.918,6.9609,6.9844,6.9844,7.0,7.0351,7.0351,7.0351,7.0351,7.0312,7.0273,7.0312,7.0898,7.1133,7.1172,7.1758,7.1367,7.0351,7.0351,7.0312,7.0273,7.0273,7.0312,7.0351,7.0273,7.0273,7.0273,7.0312,7.0351,7.0351,7.0273,7.0273,7.0273,7.0312,7.0351,7.0312,7.0273,7.0703,7.1133,7.1133,7.1562,7.1992,7.1992,7.1992,7.1992,7.1992,7.1992,7.1992,7.1992,7.1992,7.1992,7.1992,7.1992,7.1992,7.1992,7.1992,7.1992,7.1992,7.1992,7.1992,7.1992,7.1992,7.1992,7.1992,7.1992,7.1992,7.1992,7.1992,7.1992,7.1992,7.113,7.0689,7.0699,0.0,0.0,0.0,0.0,0.0,0.0,0.0,0.0,0.0,0.0,0.0,0.0,0.0,0.0,0.0,0.0,0.0,0.0,0.0,0.0,0.0,0.0,0.0,6.6914,6.6914,6.6914,6.6914,6.6914,6.6914,6.6953,6.6953,6.7305,6.8164,6.8242,6.8594,6.9375,6.9492,6.9492,6.9453,6.957,7.0,7.0781,7.082,7.125,7.207,7.207,7.207,7.207,7.207,7.207,7.207,7.207,7.207,7.207,7.207,7.207,7.2031,7.1992,7.1992,7.1992,7.1992,7.1992,7.1992,7.1992,7.1992,7.1992,7.1992,7.1992,7.1992,7.1992,7.1992,7.1992,7.1992,7.1992,7.1992,7.1992,7.1992,7.1992,7.1992,7.1992,7.1992,7.1992,7.1992,7.1992,7.1992,7.1992,7.1992,7.1992,7.1992,7.1992,7.1992,7.1992,0.0,7.2031,7.2031,7.2031,7.207,7.207,7.207,7.207,7.207,7.2031,7.2031,7.2031,7.1992,7.1992,7.1992,7.1992,7.1992,7.1151,7.0738,7.0738,0.0,0.0,0.0,0.0,0.0,0.0,0.0,0.0,0.0,0.0,0.0,0.0,0.0,0.0,0.0,0.0,0.0,0.0,0.0,0.0,0.0,6.6914,6.6914,6.6914,6.6914,6.6914,6.6914,6.6914,6.7148,6.7773,6.7851,6.8164,6.9023,6.9101,6.9219,6.9375,7.0039,7.0351,7.0351,7.1601,7.2344,7.2578,7.3203,7.3633,7.3906,7.3906,7.3906,7.3906,7.3906,7.3906,7.3906,7.3906,7.3906,7.3906,7.3906,7.3515,7.289,7.2265,7.1992,7.1992,7.1992,7.1992,7.1992,7.1992,7.1992,7.1992,7.1992,7.1992,7.1992,7.1992,7.1992,7.1992,7.1992,7.1992,7.1992,7.1992,7.1992,7.1992,7.1992,7.1992,7.1992,7.1992,7.1992,7.1992,7.1992,7.1992,7.1992,7.1992,7.1992,7.1992,7.1992,7.1992,7.2226,7.2851,7.293,7.3164,7.3828,7.3906,7.3906,7.3906,7.332,7.293,7.293,7.2344,7.1992,7.1992,7.1992,7.1989,7.201,7.1763,7.163,0.0,0.0,0.0,0.0,0.0,0.0,0.0,0.0,0.0,0.0,0.0,0.0,0.0,0.0,0.0,0.0,0.0,0.0,0.0,0.0,0.0,0.0,6.6914,6.6914,6.6914,6.6914,6.7031,6.7383,6.7422,6.7773,6.8672,6.8711,6.9062,6.9883,6.9961,7.0312,7.1015,7.1523,7.1953,7.2305,7.332,7.3828,7.3828,7.4336,7.4609,7.4609,7.4609,7.4609,7.4609,7.4609,7.4609,7.4609,7.4609,7.4609,7.4609,7.4609,7.4297,7.375,0.0,0.0,0.0,0.0,7.1992,7.1992,7.1992,7.1992,7.1992,7.1992,7.1992,7.1992,7.1992,7.1992,7.1992,7.1992,7.1992,7.1992,7.1992,7.1992,7.1992,7.1992,7.1992,7.1992,7.1992,7.1992,7.1992,7.1992,7.2305,0.0,7.2539,7.2539,7.2539,7.2539,7.2851,7.3281,7.3789,7.3828,7.4023,7.4531,7.4609,7.4609,7.4609,7.414,0.0,0.0,0.0,7.2929,7.2572,7.2179,0.0,0.0,0.0,7.2008,7.1987,7.1408,0.0,0.0,6.9078,6.8448,0.0,0.0,0.0,0.0,0.0,0.0,0.0,0.0,0.0,0.0,0.0,0.0,0.0,0.0,0.0,0.0,6.6914,6.6914,6.7031,6.7031,6.7344,6.8125,6.8281,6.8672,6.9531,6.957,6.9961,7.0937,7.0976,7.1719,7.3359,7.3437,0.0,0.0,0.0,7.4765,7.4765,7.4844,7.4883,7.4883,7.4883,7.4883,7.4883,7.4883,7.4883,7.4883,7.4883,7.4883,7.4883,7.4883,7.4844,7.4648,7.3789,7.289,7.2148,7.2148,7.207,7.1992,7.1992,0.0,0.0,7.1992,7.1992,7.1992,7.1992,7.1992,7.1992,7.1992,7.1992,7.1992,7.1992,7.1992,7.1992,7.1992,7.1992,7.1992,7.1992,7.207,7.2148,7.2148,7.2851,7.3437,7.3437,7.3437,7.3437,7.3437,7.4101,7.4648,7.4726,7.4765,7.4765,7.4882,7.4882,0.0,7.4882,7.4804,7.4765,7.4765,7.4648,7.4214,7.3325,7.2573,7.211,7.2014,7.1976,7.1987,7.1979,7.1838,7.1755,7.1641,7.0006,6.9239,0.0,0.0,0.0,0.0,0.0,0.0,0.0,0.0,0.0,0.0,0.0,0.0,0.0,0.0,0.0,6.6914,6.6914,6.7148,6.7851,6.7969,6.8008,6.8164,6.8828,6.957,7.039,7.0469,7.1094,7.2695,7.2812,7.3242,7.4297,7.4336,7.4414,7.4609,7.5273,7.5664,7.5664,7.6367,7.6719,7.6719,7.6719,0.0,7.6719,7.6719,7.6719,7.6719,7.6719,7.6719,7.6719,7.6719,7.6289,7.5547,7.4687,7.3828,7.3047,7.3047,7.2617,7.1992,7.1992,7.1992,7.1992,7.1992,7.1992,7.1992,7.1992,7.1992,0.0,7.1992,7.1992,7.1992,7.1992,7.1992,7.1992,7.1992,7.1992,7.1992,7.1992,7.2539,7.3047,7.3047,7.375,7.4334,7.4349,7.4368,7.4336,7.4336,7.4492,7.4842,7.556,7.5633,7.5915,7.6553,7.6634,7.6634,7.6634,7.6009,7.5657,7.5657,7.4993,7.421,7.3345,7.3147,7.2736,7.2008,7.194,7.1906,7.1838,7.177,7.1665,7.1591,7.051,6.9977,0.0,0.0,0.0,0.0,0.0,0.0,0.0,0.0,0.0,0.0,0.0,6.6914,6.6914,0.0,6.7031,6.7461,6.7539,6.7851,6.8711,6.9219,6.9453,6.9453,6.9844,7.043,7.1289,7.1758,7.2344,7.3242,7.3711,7.4336,7.5195,7.5234,7.5469,7.5898,7.6328,7.6562,7.6562,7.6992,7.7422,7.7851,7.7851,7.8047,7.8437,7.8047,7.7851,7.7812,7.7383,7.7187,7.7187,7.7187,7.6953,7.6523,7.6055,7.5117,7.3945,7.3945,7.3672,7.3281,7.3281,7.3008,7.2656,7.2656,7.2344,7.1992,7.1992,7.1992,7.1992,7.1992,7.1992,7.1992,7.1992,7.1992,7.2109,7.2539,7.2656,7.2773,7.3203,7.3633,7.3944,7.3937,7.4637,7.5259,7.5247,7.5599,7.5724,7.5308,7.5583,7.6009,7.6423,7.651,7.6653,7.7062,7.7101,7.7101,7.7101,7.6711,7.6516,7.6516,7.5696,7.4987,7.4538,7.4069,7.3456,7.2569,7.2462,7.2234,7.1731,7.1704,7.1614,7.1493,7.0951,7.0697,0.0,0.0,0.0,0.0,0.0,0.0,0.0,0.0,6.6914,6.6914,6.7031,6.7148,6.7148,6.7265,6.7617,6.832,6.8437,6.875,6.9609,7.0273,7.0742,7.0937,7.0937,7.1289,7.2187,7.289,7.3437,7.3789,7.4453,7.5234,7.6094,7.6133,7.6484,7.7187,7.7344,7.7461,7.7461,7.7617,7.8047,7.8711,7.8711,7.9062,7.9687,7.9023,7.8711,7.8672,7.8008,7.7695,7.7656,7.7539,7.7461,7.7422,7.7265,7.6328,7.5078,7.4922,7.4765,7.4609,7.4609,7.414,7.3555,7.3555,7.3086,7.25,7.25,7.25,7.25,7.25,7.25,7.25,7.25,7.25,7.2695,7.3398,7.3555,7.375,7.4451,7.4725,7.4837,7.4843,7.5534,7.6119,7.6102,7.6646,7.6864,7.6224,7.6696,7.7087,7.7083,7.7075,7.7073,7.7073,7.7073,7.7073,7.7073,7.7063,7.7024,7.7024,7.6391,7.5902,7.5651,7.4988,7.4197,7.334,7.3237,7.2769,7.1909,7.1831,7.1648,7.1394,7.1224,7.1201,6.6914,6.6914,6.6914,6.6914,6.6914,6.6914,0.0,0.0,6.6914,6.6914,6.7539,6.8047,6.8047,6.8633,6.914,6.9258,6.9336,6.9648,7.0469,7.0625,7.0976,7.1758,7.1836,7.2187,7.3086,7.3242,7.3945,7.5508,7.5703,7.6133,7.6992,7.7031,7.7109,7.7187,7.7969,7.8359,7.8359,7.9062,7.9453,7.957,7.957,7.9609,7.9687,7.9609,7.957,7.957,7.9453,7.9414,7.9375,7.8633,7.8359,7.8281,7.75,7.707,7.6836,7.6055,7.5273,7.4609,7.4609,7.4531,7.4453,7.4453,7.4375,7.4297,7.4297,7.4297,7.4297,7.4297,7.4297,7.4297,7.4297,7.4297,7.4336,7.4414,7.4453,7.449,7.4579,7.5194,7.574,7.5696,7.6372,7.6965,7.6877,7.6944,7.6994,7.6973,7.702,7.7082,7.7033,7.7022,7.7011,7.6933,7.6933,7.6933,7.6933,7.687,7.6819,7.6819,7.6741,7.6324,7.5532,7.5385,7.4903,7.4071,7.4001,7.354,7.2673,7.2541,7.2073,7.1291,7.1106,7.103,6.6914,6.6914,6.6914,0.0,6.6914,6.6914,6.6914,6.7305,6.7656,6.7656,6.832,6.8906,6.8906,6.918,6.957,0.0,7.0195,7.0508,7.1328,7.1445,7.1797,7.2656,7.2773,7.289,7.3242,7.4219,7.5117,7.5859,7.6367,7.6836,7.7187,7.7695,7.7969,7.7969,7.875,7.9219,7.9219,7.9531,7.9961,8.0469,8.0469,8.0703,8.1211,8.0703,8.0195,7.9687,7.9687,7.9687,7.9687,7.9336,7.9219,7.914,7.8789,7.8359,7.7851,7.6992,7.6445,7.6094,7.6094,7.5781,7.5351,7.5351,7.5,7.4609,7.4609,7.4609,7.4609,7.4609,7.4609,7.4609,7.4609,7.4605,7.4748,7.5255,7.5343,7.546,7.5936,7.634,7.6591,7.6526,7.678,7.7022,7.6897,7.6871,7.6871,7.6871,7.6909,7.6921,7.6897,7.6858,7.701,7.7501,7.7953,7.8225,7.8225,7.7797,7.7509,7.7509,7.701,7.6493,7.6107,7.6031,7.5605,7.4751,7.4692,7.4224,7.3308,7.3264,7.277,7.1863,7.1827,7.1441,6.6914,0.0,0.0,6.7187,6.7265,6.7305,6.7578,6.8086,6.8515,6.8515,6.918,6.9765,6.9765,6.9961,7.0312,7.0976,7.1055,7.1289,7.1914,7.2226,7.2578,7.3203,7.3711,7.4023,7.4023,7.5156,7.6015,7.625,7.707,7.7578,7.7578,7.8359,7.8828,7.8828,7.9648,8.0078,8.0078,8.0312,8.0742,8.1367,8.1367,8.1679,8.2265,8.164,8.1015,8.0429,8.0429,8.0429,8.039,8.0156,8.0078,8.0039,7.9805,7.9336,7.875,7.8125,7.7617,7.7187,7.7187,7.6797,7.625,7.625,7.582,7.5312,7.5312,7.5312,7.5312,7.5312,7.5312,7.5308,7.5308,7.5298,7.5467,7.6074,7.6248,7.637,7.6965,7.709,7.7043,7.6948,7.7131,7.7261,7.7112,7.7276,7.7421,7.7329,7.7326,7.7299,7.7097,7.7226,7.7525,7.8205,7.8767,7.9116,7.9116,7.8573,7.8204,7.8204,7.7349,7.6841,7.6798,7.6521,7.6049,7.5422,7.5422,7.4973,7.4011,7.4011,7.3536,7.2661,7.2635,7.2261,0.0,0.0,6.7109,6.7969,6.8164,6.8398,6.9219,6.9375,6.9375,6.9375,7.0078,7.0664,7.0664,7.1367,7.1914,7.1953,7.1953,7.1953,7.1992,7.2734,7.3281,7.3281,7.4805,7.582,7.582,7.5859,7.625,7.7109,7.7969,7.8476,7.8476,7.9219,7.9648,7.9648,8.0508,8.0976,8.0976,8.1797,8.2226,8.2265,8.2265,8.2265,8.2304,8.2265,8.2265,8.2226,8.2226,8.2226,8.2148,8.1328,8.0976,8.0898,8.0039,7.9687,7.9648,7.9648,7.8594,7.7187,7.7187,7.7187,7.7148,7.7148,7.7148,7.7109,7.7109,7.7109,7.7109,7.7109,7.7137,7.7101,7.7101,7.7083,7.7009,7.7067,7.7051,7.7034,7.7022,7.6999,7.6948,7.683,7.7477,7.8015,7.7816,7.8473,7.8973,7.8858,7.8785,7.8525,7.7832,7.8363,7.8834,7.8873,7.8912,7.8912,7.8912,7.8824,7.8773,7.8773,7.7949,7.7472,7.7472,7.6661,7.6198,7.616,7.616,7.5735,7.4848,7.4769,7.4357,7.3547,7.3465,7.3437,6.6914,0.0,6.7812,6.8125,6.8633,6.914,6.9414,6.9883,7.0273,7.0273,7.0976,7.1562,7.1562,7.1797,7.1992,7.1992,7.1992,7.2187,7.2773,7.3125,7.3711,7.4883,7.5547,7.6133,7.6719,7.6758,7.7109,7.8008,7.832,7.8711,7.9258,8.0117,8.0547,8.0547,8.1406,8.1875,8.1875,8.2148,8.2304,8.2304,8.2304,8.2304,8.2304,8.2304,8.2304,8.2304,8.2304,8.2304,8.2265,8.1992,8.1875,8.1836,8.1523,8.1054,8.0547,8.0547,7.9844,7.8867,7.8867,7.8867,7.8867,7.8867,7.8515,7.8047,7.8047,7.7656,7.7187,7.7211,7.7195,7.7173,7.7153,7.7121,7.7082,7.7053,7.7451,7.7829,7.7728,7.8154,7.8497,7.8359,7.8573,7.8708,7.851,7.8718,7.9081,7.9559,7.9172,7.8696,7.8412,7.9095,7.9609,7.9609,8.015,8.0497,8.0497,7.9957,7.9582,7.9582,7.8756,7.8006,7.7467,7.713,7.6678,7.6101,7.6062,7.5947,7.5639,7.561,7.5159,7.4312,7.4284,7.4014,6.7344,6.7969,6.8711,6.9023,6.9492,7.0,7.0312,7.0781,7.1172,7.1172,7.1601,7.1992,7.1992,7.1992,7.1992,7.1992,7.2265,7.2656,7.3203,7.3828,7.4648,7.5781,7.6445,7.7031,0.0,0.0,7.8203,7.8476,7.9062,7.9609,8.0156,8.0976,8.1445,8.1445,8.1992,8.2304,8.2304,8.2304,8.2304,8.2304,8.2304,8.2304,8.2304,8.2304,8.2304,8.2304,8.2304,8.2304,8.2304,8.2304,8.2304,8.2304,8.2304,8.1953,8.1445,8.1445,8.1094,8.0547,7.9922,7.9687,7.9687,7.9687,7.9336,7.8945,7.8945,7.8553,7.8074,7.8088,7.811,7.8097,7.8018,7.7979,7.796,7.7883,7.8248,7.861,7.8487,7.8862,7.9195,7.9028,7.9215,7.94,7.9223,7.9439,7.9797,8.0319,7.9923,7.9604,7.9576,8.0078,8.0396,8.0396,8.0897,8.1244,8.1244,8.0704,8.0396,8.0396,7.9528,7.8806,7.8267,7.7929,7.7323,7.6476,7.6476,7.6322,7.6015,7.6015,7.5707,7.5168,7.5168,7.4899,6.8242,6.8867,6.9687,7.0508,7.0742,7.0976,7.1797,7.1992,7.1992,7.1992,7.1992,7.1992,0.0,0.0,7.1992,7.207,7.2773,7.332,7.3437,7.4844,7.5937,0.0,0.0,0.0,0.0,0.0,0.0,7.8672,8.0117,8.1015,8.1054,8.1836,8.2304,8.2304,8.2304,8.2304,8.2304,8.2304,8.2304,8.2304,8.2304,8.2304,8.2304,8.2304,8.2304,8.2304,8.2304,8.2304,8.2304,8.2304,8.2304,8.2304,8.2304,8.2304,8.2304,8.2304,8.2304,8.207,8.039,7.9844,7.9844,7.9844,7.9805,7.9765,7.9765,7.9753,7.9711,7.9711,7.9697,7.9665,7.9598,7.9578,7.9544,7.9438,7.9408,7.9398,7.9192,7.9188,7.916,7.8953,7.9597,8.0111,8.001,8.0615,8.1093,8.1093,8.1093,8.1124,8.1184,8.1154,8.1093,8.1093,8.1093,8.1093,8.1093,8.1093,8.1093,8.1093,8.0323,7.9862,7.9823,7.9015,7.8169,7.7361,7.7361,7.6938,7.6053,7.6053,7.6053,7.6015,7.6015,7.6015,6.8945,6.9726,7.043,7.0625,7.1172,7.1719,7.1953,7.1992,7.1992,7.1992,7.1992,7.1992,0.0,0.0,0.0,7.2851,7.3164,0.0,7.5039,7.5625,0.0,7.7695,0.0,7.875,7.9336,8.0156,0.0,0.0,8.0742,8.1289,8.1914,8.2187,8.2304,8.2304,8.2304,8.2304,8.2304,8.2304,8.2304,8.2304,8.2304,8.2304,8.2304,8.2304,8.2304,8.2304,8.2304,8.2304,8.2304,8.2304,8.2304,8.2304,8.2304,8.2304,8.2304,8.2304,8.2304,8.2226,8.1797,8.164,8.164,8.164,8.1211,8.0663,8.0684,8.0236,7.9711,7.969,7.9665,7.9588,7.9556,7.9507,7.9438,7.9269,7.968,8.0041,7.9879,8.0306,8.0717,8.0607,8.0713,8.0838,8.0777,8.0939,8.1093,8.1093,8.1093,8.1093,8.1124,8.1093,8.1093,8.1093,8.1093,8.1093,8.1093,8.1093,8.1093,8.1093,8.09,8.0477,7.9823,7.9592,7.9054,7.8207,7.8169,7.7784,7.6976,7.6976,7.663,7.6015,7.6015,7.6015,6.9726,7.0625,7.1289,7.1289,7.164,7.1992,7.1992,7.1992,7.1992,7.1992,7.1992,0.0,7.1992,7.1992,7.2305,0.0,0.0,0.0,7.5703,7.6562,7.7383,0.0,7.914,0.0,8.0234,8.1054,8.1562,0.0,8.1562,8.1797,8.2265,8.2304,8.2304,8.2304,8.2304,8.2304,8.2304,8.2304,8.2304,8.2304,8.2304,8.2304,8.2304,8.2304,8.2304,8.2304,8.2304,8.2304,8.2304,8.2304,8.2304,8.2304,8.2304,8.2304,8.2304,8.23,8.2295,8.2295,8.2301,8.2303,8.2301,8.2297,8.1982,8.155,8.1578,8.1206,8.079,8.0796,8.0768,8.0686,8.0571,8.0497,8.0377,8.0218,8.0493,8.0744,8.0586,8.0916,8.1244,8.1184,8.1124,8.1093,8.1093,8.1093,8.1093,8.1093,8.1093,8.1093,8.1093,8.1093,8.1093,8.1093,8.1093,8.1093,8.1093,8.1093,8.1093,8.1093,8.1093,8.09,8.04,8.0362,7.9977,7.9092,7.9054,7.8669,7.7823,7.7823,7.7592,7.7092,7.7092,7.7092,7.0625,7.1406,7.1992,7.1992,7.1992,7.1992,7.1992,7.1992,7.1992,7.1992,0.0,7.1992,7.1992,7.1992,7.2305,7.332,0.0,7.4922,7.5937,7.7461,7.8555,7.8633,8.0039,8.1054,8.1172,8.1875,8.2304,8.2304,8.2304,8.2304,8.2304,8.2304,8.2304,8.2304,8.2304,8.2304,8.2304,8.2304,8.2304,8.2304,8.2304,8.2304,8.2304,8.2304,8.2304,8.2304,8.2304,8.2304,8.2304,8.2304,8.2304,8.2304,8.2304,8.2304,8.2304,8.2315,8.2293,8.2293,8.2276,8.2285,8.2281,8.2305,8.2293,8.2293,8.2281,8.2254,8.2201,8.2162,8.2116,8.2026,8.1887,8.1776,8.1613,8.1528,8.1427,8.1319,8.1214,8.1184,8.1184,8.1093,8.1093,8.1093,8.1093,8.1093,8.1093,8.1093,8.1093,8.1093,8.1093,8.1093,8.1093,8.1093,8.1093,8.1093,8.1093,8.1093,8.1093,8.1093,8.1093,8.1093,8.1093,8.1093,8.0746,7.9977,7.9977,7.9554,7.8669,7.8669,7.8592,7.8477,7.8477,7.8477,7.1523,7.1875,7.1992,7.1992,7.1992,7.1992,7.1992,7.1992,0.0,0.0,7.1992,7.1992,7.1992,7.1992,7.2539,7.4101,7.4492,7.5156,7.6758,7.7851,7.875,0.0,0.0,0.0,0.0,0.0,0.0,0.0,8.2304,8.2304,8.2304,8.2304,8.2304,8.2304,8.2304,8.2304,8.2304,8.2304,8.2304,8.2304,8.2304,8.2304,8.2304,8.2289,8.231,8.231,8.2292,8.2297,8.2297,8.2297,8.2297,8.2297,8.2297,8.2297,8.2295,8.2289,8.226,8.221,8.2218,8.2218,8.2226,8.2276,8.226,8.221,8.2226,8.2153,8.2116,8.2039,8.1983,8.1887,8.1698,8.1608,8.1504,8.1374,8.1263,8.1214,8.1124,8.1124,8.1124,8.1093,8.1093,8.1093,8.1093,8.1093,8.1093,8.1093,8.1093,8.1093,8.1093,8.1093,8.1093,8.1093,8.1093,8.1093,8.1093,8.1093,8.1093,8.1093,8.1093,8.1093,8.1093,8.1093,8.1016,8.09,8.0862,8.0439,7.9592,7.9592,7.9208,7.8477,7.8477,7.8477,7.1758,7.1992,7.1992,7.1992,7.1992,7.1992,7.1992,0.0,0.0,0.0,7.1992,7.1992,7.1992,7.2383,0.0,7.4375,7.4961,7.5898,7.7617,7.8594,0.0,8.0273,8.1133,8.1836,0.0,8.2304,8.2304,8.2304,8.23,8.2297,8.2304,8.2304,8.2304,8.2304,8.2304,8.2303,8.2292,8.2292,8.2295,8.2301,8.2301,8.2301,8.2301,8.2289,8.226,8.2265,8.2248,8.2254,8.2254,8.2254,8.2254,8.2254,8.2254,8.2254,8.2248,8.2195,8.2192,8.2151,8.2151,8.214,8.2101,8.2114,8.2143,8.2151,8.2101,8.2065,8.1998,8.1898,8.1813,8.1698,8.1585,8.1465,8.1374,8.1263,8.1214,8.1154,8.1093,8.1093,8.1093,8.1093,8.1093,8.1093,8.1093,8.1093,8.1093,8.1093,8.1093,8.1093,8.1093,8.1093,8.1093,8.1093,8.1093,8.1093,8.1093,8.1093,8.1093,8.1093,8.1093,8.1093,8.1093,8.1093,8.1093,8.1093,8.1093,8.09,8.0477,8.0477,8.0246,7.9862,7.9862,7.9862,7.1797,7.1992,7.1992,7.1992,7.1992,7.1992,7.1992,7.1992,0.0,7.1992,7.1992,7.1992,7.1992,0.0,7.3594,0.0,7.5312,7.6523,7.8242,7.918,8.0039,0.0,8.1758,0.0,8.2304,8.2304,0.0,8.2303,8.2285,8.232,8.2301,8.2304,8.2304,8.2304,8.2304,8.2297,8.2305,8.2287,8.2293,8.2281,8.2281,8.2281,8.2281,8.2276,8.2241,8.2172,8.2172,8.2172,8.2172,8.2172,8.2172,8.2172,8.2172,8.2172,8.2162,8.2116,8.2052,8.2039,8.2039,8.2012,8.1968,8.1913,8.1983,8.2026,8.1959,8.1898,8.183,8.1757,8.1656,8.1523,8.1478,8.1347,8.1234,8.1214,8.1154,8.1093,8.1093,8.1093,8.1093,8.1093,8.1093,8.1093,8.1093,8.1093,8.1093,8.1093,8.1093,8.1093,8.1093,8.1093,8.1093,8.1093,8.1093,8.1093,8.1093,8.1093,8.1093,8.1093,8.1093,8.1093,8.1093,8.1093,8.1093,8.1093,8.1093,8.1093,8.1093,8.1093,8.1093,8.1093,8.1093,8.1093,7.1992,7.1992,7.1992,7.1992,7.1992,7.1992,7.1992,0.0,7.1992,7.1992,7.1992,7.1992,7.1992,0.0,0.0,0.0,0.0,7.6523,7.8242,7.918,8.0039,8.0898,0.0,0.0,8.2304,8.2289,8.2299,8.2299,8.2281,8.2285,8.2305,8.2285,8.2295,8.2295,8.2295,8.2292,8.2289,8.2241,8.2201,8.221,8.221,8.221,8.2201,8.2162,8.2128,8.2116,8.2116,8.2116,8.2116,8.2116,8.2116,8.2116,8.2116,8.2052,8.2026,8.2012,8.1929,8.1826,8.1826,8.183,8.1776,8.1677,8.1718,8.1826,8.1826,8.1718,8.1596,8.153,8.1451,8.14,8.1234,8.1244,8.1214,8.1124,8.1093,8.1093,8.1093,8.1093,8.1093,8.1093,8.1093,8.1093,8.1093,8.1093,8.1093,8.1093,8.1093,8.1093,8.1093,8.1093,8.1093,8.1093,8.1093,8.1093,8.1093,8.1093,8.1093,8.1093,8.1093,8.1093,8.1093,8.1093,8.1093,8.1093,8.1093,8.1093,8.1093,8.1093,8.1093,8.1093,8.1093,8.1093,7.1992,7.1992,7.1992,7.1992,7.1992,7.1992,7.1992,0.0,7.1992,7.1992,7.1992,7.1992,7.1992,7.3125,0.0,0.0,0.0,0.0,7.8984,7.9492,8.0234,8.1601,8.2102,0.0,0.0,0.0,8.2287,8.2218,8.221,8.2201,8.2182,8.2226,8.2241,8.2241,8.2241,8.2234,8.2171,8.2162,8.214,8.214,8.214,8.2128,8.2077,8.2039,8.2012,8.1929,8.1929,8.1913,8.192,8.192,8.192,8.192,8.192,8.192,8.1848,8.1794,8.1718,8.1659,8.1635,8.1569,8.1538,8.149,8.1514,8.1499,8.1546,8.1499,8.1465,8.1414,8.1347,8.1263,8.1214,8.1184,8.1124,8.1093,8.1093,8.1093,8.1093,8.1093,8.1093,8.1093,8.1093,8.1093,8.1093,8.1093,8.1093,8.1093,8.1093,8.1093,8.1093,8.1093,8.1093,8.1093,8.1093,8.1093,8.1093,8.1093,8.1093,8.1093,8.1093,8.1093,8.1093,8.1093,8.1093,8.1093,8.1093,8.1093,8.1093,8.1093,8.1093,8.1093,8.1093,8.1093,7.1992,7.1992,7.1992,7.1992,7.1992,7.1992,7.1992,0.0,7.1992,7.1992,7.1992,7.1992,7.1992,7.3437,7.4609,0.0,0.0,7.7773,7.9453,7.9687,8.0351,8.2106,0.0,0.0,0.0,8.2257,8.221,8.2172,8.2116,8.2052,8.2039,8.2077,8.2101,8.2172,8.2162,8.214,8.2052,8.2026,8.2026,8.2026,8.2284,8.2372,8.2342,8.2543,8.2587,8.2475,8.2204,8.2067,8.2065,8.1794,8.1716,8.1716,8.1716,8.1716,8.1695,8.1569,8.1523,8.1499,8.144,8.14,8.1374,8.1347,8.1291,8.1263,8.1291,8.1319,8.1319,8.1263,8.1244,8.1184,8.1184,8.1124,8.1093,8.1093,8.1093,8.1093,8.1093,8.1093,8.1093,8.1093,8.1093,8.1093,8.1093,8.1093,8.1093,8.1093,8.1093,8.1093,8.1093,8.1093,8.1093,8.1093,8.1093,8.1093,8.1093,8.1093,8.1093,8.1093,8.1093,8.1093,8.1093,8.1093,8.1093,8.1093,8.1093,8.1093,8.1093,8.1093,8.1093,8.1093,8.1093,8.1093,7.1992,7.1992,7.1992,7.1992,7.1992,7.1992,7.1992,7.1992,7.1992,7.1992,7.1992,7.1992,7.1992,7.3437,7.4609,7.4609,7.6055,0.0,7.9453,7.9687,8.0348,0.0,0.0,8.2304,8.2311,8.2182,8.2104,8.2104,8.2039,8.1959,8.1913,8.1826,8.1913,8.2104,8.2026,8.2012,8.2012,8.1859,8.1809,8.1809,8.2688,8.3097,8.3136,8.3829,8.4172,8.4134,8.3101,8.2703,8.2625,8.1813,8.1504,8.1504,8.1504,8.1478,8.14,8.14,8.1347,8.1291,8.1291,8.1291,8.1263,8.1205,8.1214,8.1184,8.1124,8.1154,8.1214,8.1214,8.1154,8.1093,8.1093,8.1093,8.1093,8.1093,8.1093,8.1093,8.1093,8.1093,8.1093,8.1093,8.1093,8.1093,8.1093,8.1093,8.1093,8.1093,8.1093,8.1093,8.1093,8.1093,8.1093,8.1093,8.1093,8.1093,8.1093,8.1093,8.1093,8.1093,8.1093,8.1093,8.1093,8.1093,8.1093,8.1093,8.1093,8.1093,8.1093,8.1093,8.1093,8.1093,8.1093,8.1093,7.1992,7.1992,7.1992,7.1992,7.1992,7.1992,7.1992,7.1992,7.1992,7.1992,7.1992,7.2187,7.2773,7.3828,7.4805,7.539,7.6445,7.7773,0.0,0.0,0.0,8.2098,8.228,8.2201,0.0,0.0,8.2012,8.1959,8.183,8.1971,8.2533,8.2466,8.2531,8.2798,8.2742,8.2979,8.3485,8.3444,8.3402,8.3313,8.3599,8.3692,8.3643,8.3902,8.3992,8.39,8.3575,8.3431,8.3431,8.3161,8.3045,8.3045,8.3045,8.3045,8.2979,8.2304,8.2082,8.1976,8.1377,8.1154,8.1154,8.1154,8.1124,8.1124,8.1093,8.1124,8.1124,8.1124,8.1124,8.1093,8.1093,8.1093,8.1093,8.1093,8.1093,8.1093,8.1093,8.1093,8.1093,8.1093,8.1093,8.1093,8.1093,8.1093,8.1285,8.1823,8.19,8.2131,8.2708,8.2785,8.2785,8.2785,8.2785,8.2324,8.1208,8.1093,8.1093,8.1093,8.1093,8.1093,8.1093,8.1093,8.1093,8.1093,8.1093,8.1093,8.1093,8.1093,8.1093,8.1093,8.1093,8.1093,7.1992,7.1992,7.1992,7.1992,7.1992,7.1992,7.1992,0.0,7.1992,7.1992,7.1992,7.2265,7.3125,7.4023,7.4883,7.5742,7.6914,0.0,0.0,0.0,0.0,8.2085,0.0,0.0,0.0,8.1968,8.1865,8.1774,8.1907,8.2196,8.2738,8.2986,8.336,8.3816,8.3552,8.3623,8.4093,8.4069,8.4018,8.3939,8.4287,8.4414,8.4358,8.4638,8.4725,8.4666,8.4366,8.4211,0.0,8.3864,8.371,8.371,8.371,8.371,8.3672,8.3072,8.2879,8.2771,8.224,8.2054,8.2054,8.2054,8.2054,8.2054,8.2054,8.1593,8.1093,8.1093,8.1093,8.1093,8.1093,8.1093,8.1093,8.1093,8.1093,8.1093,8.1093,8.1093,8.1093,8.1093,8.1362,8.1554,8.1554,8.1823,8.2208,8.2708,8.2785,8.2978,8.3516,8.3593,8.3593,8.3593,8.3593,8.317,8.2131,8.1747,8.14,8.1131,8.1093,8.1093,8.1093,8.1093,8.1093,8.1093,8.1093,8.1093,8.1093,8.1093,8.1093,8.1093,8.1093,8.1093,0.0,7.1992,7.1992,7.1992,7.1992,7.1992,7.1992,0.0,0.0,0.0,0.0,7.2344,7.3242,7.4101,7.4961,7.5859,7.7382,0.0,0.0,8.0498,0.0,0.0,8.2116,0.0,8.1998,8.1794,8.1656,8.1669,8.2238,8.2648,8.2764,8.348,8.4271,8.512,8.4474,8.4077,8.4039,8.4021,8.3963,8.3963,8.4773,8.5158,8.5197,8.5869,8.6184,8.6146,8.5357,8.4978,8.4939,8.4093,8.3785,8.3785,8.3785,8.3785,8.3747,8.3708,8.367,8.367,8.3593,8.3593,8.3593,8.3593,8.3593,8.3593,8.3593,8.2516,8.1285,8.1285,8.1285,8.1285,8.1285,8.1285,8.1285,8.1285,8.1285,8.1285,8.1285,8.1285,8.1285,8.1285,8.1862,8.2401,8.2401,8.3054,8.3593,8.367,8.367,8.3708,8.3747,8.3785,8.3785,8.3785,8.3785,8.3747,8.3708,8.2901,8.2054,8.1246,8.1208,8.117,8.1093,8.1093,8.1093,8.1093,8.1093,8.1093,8.1093,8.1093,8.1093,8.1093,8.1093,8.1093,7.1992,0.0,7.1992,7.1992,7.1992,7.1992,0.0,0.0,0.0,0.0,0.0,0.0,7.4119,7.5009,7.5876,7.6671,0.0,0.0,7.959,0.0,0.0,8.2104,8.2065,8.1952,8.1794,8.1618,8.1755,8.2329,8.24,8.3046,8.4327,8.4574,8.5043,8.5851,8.5658,8.5606,8.5668,8.5637,8.5606,8.5581,8.5774,8.5851,8.5889,8.6049,8.6126,8.6126,8.5901,8.5824,8.5786,8.5593,8.5517,8.5517,8.5517,8.5517,8.544,8.4824,8.4593,8.4516,8.3824,8.3593,8.3593,8.3593,8.3593,8.3593,8.3593,8.3324,8.3016,8.3016,8.3016,8.3016,8.3016,8.3016,8.3016,8.3016,8.3016,8.3016,8.3016,8.3016,8.3016,8.3016,8.317,8.3285,8.3285,8.3439,8.3824,8.4478,8.4593,8.4824,8.544,8.5517,8.5517,8.5517,8.5517,8.5247,8.467,8.3785,8.2939,8.2054,8.2016,8.1747,8.1131,8.1093,8.1093,8.1093,8.1093,8.1093,8.1093,8.1093,8.1093,8.1093,8.1093,8.1093,7.1992,7.1992,7.1992,7.1992,7.1992,7.1992,7.1992,0.0,0.0,0.0,0.0,0.0,0.0,0.0,0.0,0.0,7.839,0.0,0.0,0.0,8.2116,8.2022,8.1952,8.183,0.0,8.1848,8.2149,8.2477,8.3141,8.3965,8.4889,8.528,8.567,8.6094,8.6094,8.6126,8.6159,8.6159,8.6126,8.6094,8.6094,8.6094,8.6094,8.6094,8.6094,8.6094,8.6094,8.6094,8.6094,8.6094,8.6094,8.6094,8.6094,8.6094,8.6055,8.5632,8.544,8.5401,8.4901,8.4747,8.4747,8.4747,8.4747,8.4747,8.4747,8.4747,8.4593,8.3824,8.3593,8.3593,8.3593,8.3593,8.3593,8.3593,8.3593,8.3593,8.3593,8.3593,8.3593,8.3593,8.3901,8.4209,8.4209,8.4516,8.4901,8.5401,8.544,8.5632,8.6055,8.6094,8.6094,8.6094,8.6094,8.594,8.5478,8.5016,8.4209,8.2978,8.2901,8.2516,8.1708,8.1631,8.1477,8.1093,8.1093,8.1093,8.1093,8.1093,8.1093,8.1093,8.1093,8.1093,7.1992,7.1992,7.1992,7.1992,7.1992,7.1992,7.1992,0.0,0.0,0.0,0.0,0.0,0.0,0.0,0.0,0.0,0.0,0.0,8.187,8.2051,8.2007,8.1881,8.1794,8.1716,8.1678,8.2226,8.2631,8.2794,8.4087,8.4939,8.5093,8.5747,8.6094,8.6094,8.6094,8.6094,8.6094,8.6094,8.6094,8.6094,8.6094,8.6094,8.6094,8.6094,8.6094,8.6094,8.6094,8.6094,8.6094,8.6094,8.6094,8.6094,8.6094,8.6094,8.6094,8.6094,8.6094,8.6094,8.6094,8.6094,8.6094,8.6094,8.6094,8.6094,8.6094,8.6094,8.5786,8.4362,8.3978,8.3978,8.3978,8.3978,8.3978,8.3978,8.3978,8.3978,8.3978,8.3978,8.3978,8.3978,8.4593,8.5093,8.5093,8.567,8.6094,8.6094,8.6094,8.6094,8.6094,8.6094,8.6094,8.6094,8.6094,8.6094,8.6094,8.6094,8.5478,8.4055,8.3862,8.3362,8.2324,8.2285,8.19,8.1131,8.1093,8.1093,8.1093,8.1093,8.1093,8.1093,8.1093,8.1093,7.1992,7.1992,7.1992,7.1992,7.1992,7.1992,7.1992,0.0,0.0,0.0,0.0,0.0,0.0,7.702,7.8065,0.0,0.0,8.0922,0.0,0.0,8.1881,8.1757,0.0,8.1794,8.2381,8.241,8.3025,8.4433,8.4747,8.5209,8.5901,8.6017,8.6094,8.6094,8.6094,8.6094,8.6094,8.6094,8.6094,8.6094,8.6094,8.6094,8.6094,8.6094,8.6094,8.6094,8.6094,8.6094,8.6094,8.6094,8.6094,8.6094,8.6094,8.6094,8.6094,8.6094,8.6094,8.6094,8.6094,8.6094,8.6094,8.6094,8.6094,8.6094,8.6094,8.6094,8.6055,8.5786,8.5709,8.5709,8.5709,8.5709,8.5709,8.5709,8.5709,8.5709,8.5709,8.5709,8.5709,8.5709,8.5824,8.594,8.594,8.6017,8.6094,8.6094,8.6094,8.6094,8.6094,8.6094,8.6094,8.6094,8.6094,8.6094,8.6094,8.6094,8.5978,8.5747,8.5093,8.3978,8.2362,8.2285,8.19,8.1131,8.1093,8.1093,8.1093,8.1093,8.1093,8.1093,8.1093,8.1093,7.1992,7.1992,7.1992,7.1992,7.1992,7.2109,7.2606,0.0,0.0,0.0,0.0,0.0,0.0,0.0,7.8592,7.9403,0.0,8.1454,8.1735,8.1737,8.1718,0.0,0.0,8.1697,8.241,8.2862,8.3611,8.4824,8.5286,8.5709,8.6094,8.6094,8.6094,8.6094,8.6094,8.6094,8.6094,8.6094,8.6094,8.6094,8.6094,8.6094,8.6094,8.6094,8.6094,8.6094,8.6094,8.6094,8.6094,8.6094,8.6094,8.6094,8.6094,8.6094,8.6094,8.6094,8.6094,8.6094,8.6094,8.6094,8.6094,8.6094,8.6094,8.6094,8.6094,8.6094,8.6094,8.6094,8.6094,8.6094,8.6094,8.6094,8.6094,8.6094,8.6094,8.6094,8.6094,8.6094,8.6094,8.6094,8.6094,8.6094,8.6094,8.6094,8.6094,8.6094,8.6094,8.6094,8.6094,8.6094,8.6094,8.6094,8.6094,8.6094,8.6094,8.6094,8.6094,8.6094,8.5363,8.4555,8.3747,8.2785,8.2131,8.1747,8.1323,8.1093,8.1093,8.1093,8.1093,8.1093,8.1093,8.1093,7.1992,7.1992,7.2031,7.2264,0.0,7.2491,0.0,0.0,0.0,0.0,0.0,0.0,0.0,7.8079,0.0,8.0608,8.1369,8.1737,8.1635,8.1569,8.1538,8.1478,8.1555,8.1908,8.2601,8.3457,8.4311,8.5132,8.5747,8.6094,8.6094,8.6094,8.6094,8.6094,8.6094,8.6094,8.6094,8.6094,8.6094,8.6094,8.6094,8.6094,8.6094,8.6094,8.6094,8.6094,8.6094,8.6094,8.6094,8.6094,8.6094,8.6094,8.6094,8.6094,8.6094,8.6094,8.6094,8.6094,8.6094,8.6094,8.6094,8.6094,8.6094,8.6094,8.6094,8.6094,8.6094,8.6094,8.6094,8.6094,8.6094,8.6094,8.6094,8.6094,8.6094,8.6094,8.6094,8.6094,8.6094,8.6094,8.6094,8.6094,8.6094,8.6094,8.6094,8.6094,8.6094,8.6094,8.6094,8.6094,8.6094,8.6094,8.6094,8.6094,8.6094,8.6094,8.6094,8.6094,8.5517,8.5093,8.4901,8.3632,8.2708,8.2324,8.1708,8.1285,8.1093,8.1093,8.1093,8.1093,8.1093,8.1093,7.1992,7.1992,7.2186,7.3017,0.0,0.0,7.328,0.0,0.0,0.0,0.0,0.0,0.0,7.9286,8.0611,8.1402,8.1591,8.1577,8.1453,0.0,8.14,8.1319,8.189,8.264,8.3526,8.435,8.5132,8.594,8.6055,8.6094,8.6094,8.6094,8.6094,8.6094,8.6094,8.6094,8.6094,8.6094,8.6094,8.6094,8.6094,8.6094,8.6094,8.6094,8.6094,8.6094,8.6094,8.6094,8.6094,8.6094,8.6094,8.6094,8.6094,8.6094,8.6094,8.6094,8.6094,8.6094,8.6094,8.6094,8.6094,8.6094,8.6094,8.6094,8.6094,8.6094,8.6094,8.6094,8.6094,8.6094,8.6094,8.6094,8.6094,8.6094,8.6094,8.6094,8.6094,8.6094,8.6094,8.6094,8.6094,8.6094,8.6094,8.6094,8.6094,8.6094,8.6094,8.6094,8.6094,8.6094,8.6094,8.6094,8.6094,8.6094,8.6094,8.6094,8.6094,8.6094,8.6055,8.567,8.4939,8.4786,8.3939,8.2324,8.2247,8.1862,8.1093,8.1093,8.1093,8.1093,8.1093,8.1093,7.1981,7.2404,7.2865,7.3158,0.0,0.0,0.0,0.0,0.0,0.0,0.0,0.0,0.0,0.0,8.057,8.1335,8.1414,8.14,8.1347,8.1291,8.1456,8.1928,8.2186,8.2894,8.4279,8.4709,8.5247,8.6055,8.6094,8.6094,8.6094,8.6094,8.6094,8.6094,8.6094,8.6094,8.6094,8.6094,8.6094,8.6094,8.6094,8.6094,8.6094,8.6094,8.6094,8.6094,8.6094,8.6094,8.6094,8.6094,8.6094,8.6094,8.6094,8.6094,8.6094,8.6094,8.6094,8.6094,8.6094,8.6094,8.6094,8.6094,8.6094,8.6094,8.6094,8.6094,8.6094,8.6094,8.6094,8.6094,8.6094,8.6094,8.6094,8.6094,8.6094,8.6094,8.6094,8.6094,8.6094,8.6094,8.6094,8.6094,8.6094,8.6094,8.6094,8.6094,8.6094,8.6094,8.6094,8.6094,8.6094,8.6094,8.6094,8.6094,8.6094,8.6094,8.6094,8.6094,8.6094,8.5978,8.567,8.517,8.4593,8.3939,8.2862,8.2131,8.1862,8.1323,8.1093,8.1093,8.1093,8.1093,7.2349,7.2834,7.3413,7.3914,7.4897,0.0,0.0,0.0,0.0,0.0,0.0,0.0,0.0,0.0,0.0,0.0,8.1291,8.1234,8.1273,8.1214,8.1493,8.2263,8.2547,8.3285,8.4747,8.5132,8.5517,8.6055,8.6094,8.6094,8.6094,8.6094,8.6094,8.6094,8.6094,8.6094,8.6094,8.6094,8.6094,8.6094,8.6094,8.6094,8.6094,8.6094,8.6094,8.6094,8.6094,8.6094,8.6094,8.6094,8.6247,8.6517,8.6517,8.6671,8.6901,8.6901,8.6901,8.6901,8.6901,8.6901,8.6901,8.6901,8.6901,8.6901,8.6901,8.6901,8.6901,8.6901,8.6901,8.6901,8.6901,8.6517,8.6094,8.6094,8.6094,8.6094,8.6094,8.6094,8.6094,8.6094,8.6094,8.6094,8.6094,8.6094,8.6094,8.6094,8.6094,8.6094,8.6094,8.6094,8.6094,8.6094,8.6094,8.6094,8.6094,8.6094,8.6094,8.6094,8.6094,8.6094,8.6094,8.5555,8.517,8.4901,8.3478,8.2554,8.2285,8.1477,8.1093,8.1093,8.1093,8.1093,7.3075,7.3321,7.3718,7.5377,7.5741,0.0,7.775,0.0,0.0,0.0,0.0,0.0,0.0,0.0,0.0,8.1214,8.1214,8.1184,8.1093,8.1093,8.14,8.2208,8.3093,8.3939,8.4824,8.5632,8.6094,8.6094,8.6094,8.6094,8.6094,8.6094,8.6094,8.6094,8.6094,8.6094,8.6094,8.6094,8.6094,8.6094,8.6094,8.6094,8.6094,8.6094,8.6094,8.6094,8.6132,8.6132,8.6132,8.6132,8.6632,8.7401,8.7401,8.794,8.8709,8.8709,8.8709,8.8709,8.8709,8.8709,8.8709,8.8709,8.8709,8.8709,8.8709,8.8709,8.8709,8.8709,8.8709,8.8709,8.8709,8.7401,8.6132,8.6132,8.6132,8.6132,8.6094,8.6094,8.6094,8.6094,8.6094,8.6094,8.6094,8.6094,8.6094,8.6094,8.6094,8.6094,8.6094,8.6094,8.6094,8.6094,8.6094,8.6094,8.6094,8.6094,8.6094,8.6094,8.6094,8.6094,8.6094,8.6094,8.5747,8.4939,8.4055,8.317,8.2324,8.1516,8.1093,8.1093,8.1093,8.1093,7.3172,7.4125,0.0,7.5558,0.0,0.0,0.0,7.7986,0.0,0.0,0.0,8.1014,8.0905,0.0,0.0,8.1154,8.1124,8.1124,8.1093,8.1593,8.2247,8.3093,8.3978,8.4824,8.567,8.5978,8.6094,8.6094,8.6094,8.6094,8.6094,8.6094,8.6094,8.6094,8.6094,8.6094,8.6094,8.6094,8.6094,8.6094,8.6709,8.6709,8.6132,8.6748,8.7017,8.7055,8.7671,8.794,8.794,8.794,8.8055,8.8286,8.8286,8.8479,8.8709,8.8709,8.8709,8.8709,8.8709,8.8709,8.8709,8.8709,8.8709,8.8709,8.8709,8.8709,8.8709,8.8709,8.8709,8.8709,8.8709,8.8325,8.794,8.794,8.794,8.7748,8.7132,8.7017,8.6824,8.6209,8.6094,8.6094,8.6094,8.6094,8.6094,8.6094,8.6094,8.6094,8.6094,8.6094,8.6094,8.6094,8.6094,8.6094,8.6094,8.6094,8.6094,8.6094,8.6094,8.6094,8.6094,8.6094,8.5978,8.5747,8.4939,8.4093,8.3208,8.2362,8.1631,8.1093,8.1093,8.1093,7.3657,0.0,0.0,0.0,0.0,0.0,0.0,0.0,0.0,0.0,0.0,8.1291,8.1214,8.1184,0.0,8.1093,8.1093,8.1208,8.1516,8.1977,8.2747,8.3978,8.4593,8.5209,8.6017,8.6094,8.6094,8.6094,8.6094,8.6094,8.6094,8.6094,8.6094,8.6094,8.6094,8.6094,8.6094,8.6094,8.6286,8.6632,8.7132,8.7325,8.7132,8.7671,8.7902,8.794,8.8479,8.8709,8.8709,8.8709,8.8902,8.9171,8.9171,8.9402,8.9671,8.9671,8.9671,8.9671,8.9671,8.9671,8.9671,8.9671,8.9671,8.9671,8.9671,8.9671,8.9671,8.9671,8.9671,8.9671,8.9671,8.9671,8.9517,8.8863,8.8709,8.8556,8.8017,8.7902,8.7748,8.7209,8.7132,8.7132,8.7132,8.7132,8.7132,8.7132,8.6824,8.6632,8.6632,8.6324,8.6094,8.6094,8.6094,8.6094,8.6094,8.6094,8.6094,8.6094,8.6094,8.6094,8.6094,8.6094,8.6094,8.6094,8.5324,8.4632,8.4093,8.2901,8.2054,8.1554,8.1246,8.1093,7.4363,0.0,0.0,0.0,0.0,0.0,0.0,0.0,0.0,0.0,0.0,8.1214,8.1214,8.1154,8.1093,8.1093,8.1093,8.1362,8.217,8.2362,8.3054,8.4709,8.4978,8.5286,8.6017,8.6094,8.6094,8.6094,8.6094,8.6094,8.6094,8.6094,8.6094,8.6094,8.6094,8.6132,8.6209,8.6209,8.6671,8.7517,8.7594,8.8055,8.8786,8.8786,8.8825,8.894,8.894,8.894,8.894,8.894,8.9363,9.0017,9.0017,9.0517,9.121,9.121,9.121,9.121,9.121,9.121,9.121,9.121,9.121,9.121,9.121,9.121,9.121,9.121,9.121,9.121,9.121,9.121,9.0825,8.9286,8.894,8.8902,8.8825,8.8786,8.8786,8.8709,8.8709,8.8709,8.8709,8.8709,8.8709,8.8709,8.8017,8.7517,8.7517,8.6824,8.6324,8.6247,8.6209,8.6209,8.6094,8.6094,8.6094,8.6094,8.6094,8.6094,8.6094,8.6094,8.6094,8.6094,8.5401,8.4978,8.4901,8.3247,8.2362,8.2285,8.1477,8.1093,7.5151,7.5924,0.0,0.0,0.0,0.0,0.0,0.0,8.1041,8.1205,8.1214,8.1184,8.1124,8.1093,8.1093,8.1093,8.1093,8.1362,8.217,8.2901,8.3708,8.4786,8.5478,8.5901,8.6094,8.6094,8.6094,8.6094,8.6094,8.6094,8.6094,8.6094,8.6094,8.6094,8.6094,8.644,8.7094,8.7132,8.7555,8.844,8.9056,8.9479,8.9633,8.9633,9.0017,9.0671,9.0671,9.0671,9.0671,9.0671,9.0748,9.0941,9.0941,9.1018,9.121,9.121,9.121,9.121,9.121,9.121,9.121,9.121,9.121,9.121,9.121,9.121,9.121,9.121,9.121,9.121,9.121,9.121,9.1095,9.0748,9.0671,9.0479,8.9787,8.9633,8.9479,8.8825,8.8709,8.8709,8.8709,8.8709,8.8709,8.8709,8.8517,8.8402,8.8402,8.8248,8.7863,8.7171,8.7132,8.6824,8.617,8.6094,8.6094,8.6094,8.6094,8.6094,8.6094,8.6094,8.6094,8.6094,8.594,8.5517,8.4901,8.3824,8.2978,8.2285,8.1477,8.1093,7.5366,0.0,0.0,7.7882,0.0,8.0165,8.0992,8.1154,8.1154,8.1154,8.1154,8.1154,8.1093,8.1093,8.1093,8.1093,8.14,8.1977,8.2785,8.367,8.4516,8.5363,8.5863,8.6094,8.6094,8.6094,8.6094,8.6094,8.6094,8.6094,8.6094,8.6517,8.6709,8.6709,8.7132,8.7555,8.8017,8.8017,8.844,8.9286,8.971,9.0133,9.0517,9.0517,9.0787,9.121,9.121,9.121,9.121,9.121,9.121,9.121,9.121,9.121,9.121,9.121,9.121,9.121,9.121,9.121,9.121,9.121,9.121,9.121,9.121,9.121,9.121,9.121,9.121,9.121,9.121,9.121,9.121,9.121,9.121,9.1095,9.0633,9.0517,9.0402,8.9979,8.9902,8.9902,8.9902,8.9902,8.9902,8.9902,8.9556,8.9286,8.9286,8.894,8.8517,8.8055,8.7632,8.7209,8.6748,8.6324,8.6094,8.6094,8.6094,8.6094,8.6094,8.6094,8.6094,8.6094,8.6094,8.5901,8.5478,8.4632,8.3785,8.2901,8.2054,8.1477,7.5493,0.0,7.7179,7.8525,7.9451,0.0,8.0939,8.1093,8.1093,8.1093,8.1093,8.1093,8.1093,8.1093,8.1093,8.1093,8.1785,8.2593,8.3478,8.4362,8.5209,8.6017,8.6094,8.6094,8.6094,8.6094,8.6094,8.6094,8.6094,8.617,8.6324,8.7017,8.7478,8.7632,8.8325,8.8748,8.8902,8.8902,8.9325,9.0133,9.0133,9.0517,9.121,9.121,9.121,9.121,9.121,9.121,9.121,9.121,9.121,9.121,9.121,9.121,9.121,9.121,9.121,9.121,9.121,9.121,9.121,9.121,9.121,9.121,9.121,9.121,9.121,9.121,9.121,9.121,9.121,9.121,9.121,9.121,9.121,9.121,9.121,9.121,9.121,9.121,9.121,9.121,9.121,9.121,9.121,9.121,9.0594,9.0133,9.0133,8.9556,8.9056,8.8902,8.8248,8.7709,8.7401,8.6748,8.6247,8.6094,8.6094,8.6094,8.6094,8.6094,8.6094,8.6094,8.6094,8.6094,8.6094,8.5286,8.4516,8.3785,8.2785,8.1939,7.6333,0.0,7.8617,0.0,8.0346,8.0939,0.0,8.1093,8.1093,8.1093,8.1093,8.1093,8.1093,8.1093,8.1093,8.1093,8.1785,8.2593,8.3478,8.4362,8.5209,8.6017,8.6094,8.6094,8.6094,8.6094,8.6094,8.6094,8.6094,8.644,8.7171,8.7325,8.7748,8.8479,8.8632,8.9017,8.9748,8.9748,9.0171,9.1018,9.1018,9.1095,9.121,9.121,9.121,9.121,9.121,9.121,9.121,9.121,9.121,9.121,9.121,9.121,9.121,9.121,9.121,9.121,9.121,9.121,9.121,9.121,9.121,9.121,9.121,9.121,9.121,9.121,9.121,9.121,9.121,9.121,9.121,9.121,9.121,9.121,9.121,9.121,9.121,9.121,9.121,9.121,9.121,9.121,9.121,9.121,9.1095,9.1018,9.1018,9.0941,9.0594,8.9825,8.9633,8.8979,8.7517,8.7286,8.6901,8.617,8.6094,8.6094,8.6094,8.6094,8.6094,8.6094,8.6094,8.6094,8.6094,8.5286,8.4863,8.4709,8.3054,8.2247,7.6883,7.791,7.8854,0.0,8.0469,8.1093,8.1093,8.1093,8.1093,8.1093,8.1093,8.1093,8.1093,8.1093,8.1246,8.1708,8.2477,8.3324,8.4209,8.5055,8.5709,8.6055,8.6094,8.6094,8.6094,8.6094,8.6094,8.6094,8.6555,8.7017,8.7363,8.8286,8.8979,8.9363,8.9863,9.0287,9.0633,9.0633,9.0825,9.121,9.121,9.121,9.121,9.121,9.121,9.121,9.121,9.121,9.121,9.121,9.121,9.121,9.121,9.121,9.121,9.121,9.121,9.121,9.121,9.121,9.121,9.121,9.121,9.121,9.121,9.121,9.121,9.121,9.121,9.121,9.121,9.121,9.121,9.121,9.121,9.121,9.121,9.121,9.121,9.121,9.121,9.121,9.121,9.121,9.121,9.121,9.121,9.121,9.121,9.121,9.1056,9.0671,9.021,8.9594,8.8863,8.794,8.7248,8.6863,8.6363,8.6094,8.6094,8.6094,8.6094,8.6094,8.6094,8.6094,8.6094,8.5747,8.5363,8.4901,8.4132,8.3247,7.7471,7.8216,7.8835,7.9892,8.0631,8.1093,8.1093,8.1093,8.1093,8.1093,8.1093,8.1093,8.1093,8.1093,8.1362,8.217,8.3016,8.3901,8.4786,8.5593,8.6094,8.6094,8.6094,8.6094,8.6094,8.6094,8.6209,8.6401,8.7017,8.7594,8.8017,8.921,9.0017,9.021,9.0864,9.121,9.121,9.121,9.121,9.121,9.121,9.121,9.121,9.121,9.121,9.121,9.121,9.121,9.121,9.121,9.121,9.121,9.121,9.121,9.121,9.121,9.121,9.121,9.121,9.121,9.121,9.121,9.121,9.121,9.121,9.121,9.121,9.121,9.121,9.121,9.121,9.121,9.121,9.121,9.121,9.121,9.121,9.121,9.121,9.121,9.121,9.121,9.121,9.121,9.121,9.121,9.121,9.121,9.121,9.121,9.121,9.121,9.0633,9.0133,8.994,8.8748,8.7863,8.744,8.6786,8.6324,8.6094,8.6094,8.6094,8.6094,8.6094,8.6094,8.6094,8.6094,8.5786,8.5209,8.5016,8.4209,7.8177,7.8556,7.8989,8.0623,8.1054,8.1093,8.1093,8.1093,8.1093,8.1093,8.1093,8.1093,8.1093,8.1093,8.1362,8.217,8.3016,8.3901,8.4786,8.5593,8.6094,8.6094,8.6094,8.6094,8.6094,8.6094,8.644,8.7286,8.7363,8.8094,8.971,8.9863,9.0287,9.1133,9.1171,9.121,9.121,9.121,9.121,9.121,9.121,9.121,9.121,9.121,9.121,9.121,9.121,9.121,9.121,9.121,9.121,9.121,9.121,9.121,9.121,9.121,9.121,9.121,9.121,9.121,9.121,9.121,9.121,9.121,9.121,9.121,9.121,9.121,9.121,9.121,9.121,9.121,9.121,9.121,9.121,9.121,9.121,9.121,9.121,9.121,9.121,9.121,9.121,9.121,9.121,9.121,9.121,9.121,9.121,9.121,9.121,9.121,9.1171,9.0787,8.9979,8.9825,8.9094,8.7517,8.7363,8.6978,8.6132,8.6094,8.6094,8.6094,8.6094,8.6094,8.6094,8.6094,8.6094,8.6017,8.5247,8.4863,7.8315,7.8989,7.9661,8.0785,8.1093,8.1093,8.1093,8.1093,8.1093,8.1093,8.1093,8.1093,8.1093,8.1093,8.1554,8.2901,8.3401,8.4093,8.5478,8.594,8.6094,8.6094,8.6094,8.6094,8.6094,8.6094,8.6478,8.7325,8.7902,8.8709,8.9863,9.0441,9.0902,9.121,9.121,9.121,9.121,9.121,9.121,9.121,9.121,9.121,9.121,9.121,9.121,9.121,9.121,9.121,9.121,9.121,9.121,9.121,9.121,9.121,9.121,9.121,9.121,9.121,9.121,9.121,9.121,9.121,9.121,9.121,9.121,9.121,9.121,9.121,9.121,9.121,9.121,9.121,9.121,9.121,9.121,9.121,9.121,9.121,9.121,9.121,9.121,9.121,9.121,9.121,9.121,9.121,9.121,9.121,9.121,9.121,9.121,9.121,9.121,9.1056,9.0748,9.021,8.944,8.8286,8.7709,8.7017,8.6132,8.6094,8.6094,8.6094,8.6094,8.6094,8.6094,8.6094,8.6094,8.6094,8.5786,8.5401,7.872,0.0,8.0015,8.09,8.1093,8.1093,8.1093,8.1093,8.1093,8.1093,8.1093,8.1093,8.1093,8.1093,8.1631,8.3324,8.3593,8.417,8.5863,8.6094,8.6094,8.6094,8.6094,8.6094,8.6094,8.6363,8.6901,8.7786,8.8632,8.9479,9.0287,9.0902,9.121,9.121,9.121,9.121,9.121,9.121,9.121,9.121,9.121,9.121,9.121,9.121,9.121,9.121,9.121,9.121,9.121,9.121,9.121,9.121,9.121,9.121,9.121,9.121,9.121,9.121,9.121,9.121,9.121,9.121,9.121,9.121,9.121,9.121,9.121,9.121,9.121,9.121,9.121,9.121,9.121,9.121,9.121,9.121,9.121,9.121,9.121,9.121,9.121,9.121,9.121,9.121,9.121,9.121,9.121,9.121,9.121,9.121,9.121,9.121,9.121,9.121,9.121,9.0671,8.9979,8.9171,8.8325,8.744,8.6555,8.6214,8.6099,8.6099,8.6026,8.5992,8.5992,8.606,8.6094,8.6094,8.6094,8.5824,0.0,0.0,0.0,8.09,8.1093,8.1093,8.1093,8.1093,8.1093,8.1093,8.1093,8.1093,8.1093,8.1093,8.1631,8.3324,8.3593,8.417,8.5863,8.6094,8.6094,8.6094,8.6094,8.6094,8.6094,8.6901,8.7748,8.8632,8.944,9.0287,9.1171,9.121,9.121,9.121,9.121,9.121,9.121,9.121,9.121,9.121,9.121,9.121,9.121,9.121,9.121,9.121,9.121,9.121,9.121,9.121,9.121,9.121,9.121,9.121,9.121,9.121,9.121,9.121,9.121,9.121,9.121,9.121,9.121,9.121,9.121,9.121,9.121,9.121,9.121,9.121,9.121,9.121,9.121,9.121,9.121,9.121,9.121,9.121,9.121,9.121,9.121,9.121,9.121,9.121,9.121,9.121,9.121,9.121,9.121,9.121,9.121,9.121,9.121,9.121,9.121,9.121,9.0825,8.9979,8.9133,8.8286,8.744,8.6492,8.5996,8.5996,8.5852,8.5815,8.5815,8.5992,8.6094,8.6094,8.6094,8.6094,7.9669,0.0,0.0,0.0,0.0,0.0,8.1093,8.1093,8.1093,8.1093,8.1093,8.1093,8.1093,8.1093,8.1631,8.3324,8.3593,8.417,8.5863,8.6094,8.6094,8.6094,8.6094,8.6094,8.6094,8.6901,8.7748,8.8632,8.944,9.0287,9.1171,9.121,9.121,9.121,9.121,9.121,9.121,9.121,9.121,9.121,9.121,9.121,9.121,9.121,9.121,9.121,9.121,9.121,9.121,9.121,9.121,9.121,9.121,9.121,9.121,9.121,9.121,9.121,9.121,9.121,9.121,9.121,9.121,9.121,9.121,9.121,9.121,9.121,9.121,9.121,9.121,9.121,9.121,9.121,9.121,9.121,9.121,9.121,9.121,9.121,9.121,9.121,9.121,9.121,9.121,9.121,9.121,9.121,9.121,9.121,9.121,9.121,9.121,9.121,9.121,9.121,9.0825,8.9979,8.9063,8.8144,8.7299,8.6312,8.578,8.578,8.5667,8.559,8.559,8.5779,8.5887,8.5887,8.5958,8.6026,0.0,0.0,0.0,0.0,0.0,0.0,8.1093,8.1093,8.1093,8.1093,8.1093,8.1093,8.1093,8.1093,8.1516,8.2824,8.3362,8.417,8.5863,8.6094,8.6094,8.6094,8.6094,8.6094,8.6094,8.7209,8.8132,8.8671,8.9787,9.0671,9.1171,9.121,9.121,9.121,9.121,9.121,9.121,9.121,9.121,9.121,9.121,9.121,9.121,9.121,9.121,9.121,9.121,9.121,9.121,9.121,9.121,9.121,9.121,9.121,9.121,9.121,9.121,9.121,9.121,9.121,9.121,9.121,9.121,9.121,9.121,9.121,9.121,9.121,9.121,9.121,9.121,9.121,9.121,9.121,9.121,9.121,9.121,9.121,9.121,9.121,9.121,9.121,9.121,9.121,9.121,9.121,9.121,9.121,9.121,9.121,9.121,9.121,9.121,9.121,9.121,9.121,9.0944,9.037,8.9527,8.861,8.7655,8.6624,8.5855,8.5471,8.527,8.5186,8.5186,8.5513,8.5704,8.5742,8.5852,8.5923,0.0,0.0,0.0,0.0,8.1093,0.0,8.1093,8.1093,8.1093,8.1093,8.1093,8.1093,8.1093,8.1093,8.1362,8.217,8.3016,8.4132,8.5747,8.6055,8.6094,8.6094,8.6094,8.6094,8.6094,8.7671,8.8709,8.8709,9.0248,9.121,9.121,9.121,9.121,9.121,9.121,9.121,9.121,9.121,9.121,9.121,9.121,9.121,9.121,9.121,9.121,9.121,9.121,9.121,9.121,9.1287,9.1287,9.121,9.121,9.121,9.121,9.1325,9.1325,9.1364,9.1441,9.1479,9.1479,9.1364,9.1325,9.1325,9.1248,9.121,9.121,9.121,9.121,9.121,9.121,9.121,9.121,9.121,9.121,9.121,9.121,9.121,9.121,9.121,9.121,9.121,9.121,9.121,9.121,9.121,9.121,9.121,9.121,9.1175,9.1175,9.1175,9.1175,9.1175,9.1175,9.1175,9.11,9.0991,9.0184,8.9267,8.8307,8.7146,8.61,8.517,8.4871,8.4694,8.4694,8.5186,8.5511,8.5628,8.5704,8.5742,0.0,0.0,0.0,0.0,0.0,0.0,8.1093,8.1093,8.1093,8.1093,8.1093,8.1093,8.1093,8.1093,8.1362,8.217,8.3016,8.3939,8.4978,8.5709,8.6094,8.6094,8.6094,8.6094,8.6094,8.7671,8.8709,8.8709,9.0248,9.121,9.121,9.121,9.121,9.121,9.121,9.121,9.121,9.121,9.121,9.121,9.121,9.121,9.121,9.121,9.121,9.121,9.121,9.121,9.1248,9.1979,9.1825,9.121,9.121,9.121,9.1287,9.1979,9.2249,9.2326,9.2979,9.321,9.3095,9.2441,9.2249,9.2133,9.1402,9.121,9.121,9.121,9.121,9.121,9.121,9.121,9.121,9.121,9.121,9.121,9.121,9.121,9.1175,9.1064,9.11,9.121,9.121,9.121,9.121,9.121,9.121,9.1175,9.1064,9.1064,9.1028,9.0992,9.0954,9.0954,9.0954,9.0954,9.0877,9.0799,8.9875,8.9218,8.8777,8.7011,8.5868,8.5534,8.4645,8.4153,8.4153,8.4694,8.5056,8.5228,8.5232,8.5352,0.0,0.0,0.0,8.1093,0.0,0.0,0.0,8.1093,8.1093,8.1093,8.1093,8.1093,8.1093,8.1093,8.1246,8.1631,8.2401,8.3247,8.4132,8.5324,8.6094,8.6094,8.6094,8.6094,8.6094,8.7286,8.8402,8.9248,9.0479,9.121,9.121,9.121,9.121,9.121,9.121,9.121,9.121,9.121,9.121,9.121,9.121,9.121,9.121,9.121,9.1441,9.1864,9.1864,9.2095,9.2479,9.2903,9.2826,9.2441,9.2441,9.2441,9.2518,9.2941,9.3095,9.3172,9.3557,9.371,9.3633,9.321,9.3095,9.2941,9.2095,9.1556,9.121,9.121,9.121,9.121,9.121,9.121,9.121,9.121,9.121,9.121,9.11,9.11,9.1064,9.0953,9.0953,9.0953,9.1066,9.1066,9.1066,9.1066,9.1066,9.1029,9.0953,9.0915,9.0838,9.0799,9.0759,9.0681,9.0681,9.0681,9.06,9.047,9.0007,8.9368,8.8501,8.7462,8.6327,8.5129,8.4087,8.3564,8.3564,8.3854,8.418,8.4656,8.4795,8.4924,0.0,0.0,0.0,0.0,0.0,8.1093,0.0,0.0,0.0,8.1093,8.1093,8.1093,8.1093,8.1093,8.1093,8.1093,8.1785,8.2593,8.3478,8.4901,8.594,8.6094,8.6094,8.6094,8.6094,8.7055,8.8286,8.9787,9.071,9.121,9.121,9.121,9.121,9.121,9.121,9.121,9.121,9.121,9.121,9.121,9.121,9.1287,9.1441,9.1441,9.1902,9.271,9.271,9.3095,9.371,9.3864,9.3941,9.3941,9.3749,9.371,9.371,9.3903,9.3941,9.398,9.4134,9.421,9.4172,9.398,9.3826,9.3557,9.2749,9.2018,9.1441,9.1248,9.121,9.121,9.121,9.121,9.121,9.121,9.121,9.1136,9.1028,9.0952,9.0877,9.0799,9.0679,9.0679,9.0799,9.0838,9.0799,9.0799,9.0799,9.0799,9.0759,9.0679,9.0558,9.0517,9.0432,9.0351,9.0351,9.0351,9.0263,9.0029,9.0029,8.9487,8.8263,8.7861,8.6706,8.4525,8.37,8.3136,8.2987,8.2987,8.3395,8.4102,8.4306,8.4454,0.0,0.0,0.0,0.0,8.1093,0.0,0.0,0.0,8.1093,8.1093,0.0,8.1093,8.1093,0.0,0.0,8.1093,8.1785,8.2593,8.3478,8.4439,8.5286,8.6017,8.6094,8.6094,8.6094,8.7594,8.894,8.9825,9.071,9.121,9.121,9.121,9.121,9.121,9.121,9.121,9.121,9.121,9.121,9.121,9.121,9.1595,9.2364,9.2364,9.2787,9.3557,9.3557,9.3633,9.3749,9.4518,9.4826,9.4788,9.398,9.371,9.3787,9.4557,9.4826,9.4941,9.5749,9.6019,9.5865,9.5095,9.4326,9.3557,9.2749,9.2441,9.2172,9.1441,9.121,9.121,9.121,9.121,9.121,9.121,9.11,9.1028,9.0989,9.0839,9.0641,9.0394,9.0301,9.0383,9.0679,9.06,9.0558,9.0558,9.0558,9.0474,9.0295,9.0295,9.0205,8.9935,8.9887,8.9887,8.9887,8.9887,8.979,8.9489,8.9489,8.9205,8.8692,8.7518,8.5979,8.3977,8.3867,8.346,8.2758,8.2758,8.3024,8.3657,8.3712,8.3876,0.0,0.0,0.0,0.0,0.0,0.0,8.1093,0.0,8.1093,0.0,0.0,0.0,0.0,0.0,0.0,0.0,8.1362,8.2054,8.3401,8.3901,8.4632,8.594,8.6094,8.6094,8.6094,8.7209,8.8286,8.9133,8.9979,9.0671,9.1171,9.121,9.121,9.121,9.121,9.121,9.121,9.121,9.1441,9.1941,9.1941,9.2402,9.321,9.321,9.3672,9.4441,9.4441,9.4749,9.5249,9.5595,9.5749,9.5711,9.5365,9.5211,9.5249,9.5634,9.5749,9.5826,9.6172,9.6288,9.6249,9.5865,9.5172,9.4403,9.4057,9.3595,9.3018,9.2172,9.1941,9.1825,9.1325,9.1136,9.11,9.11,9.0953,9.08,9.0721,9.0558,9.0301,9.0037,8.9887,8.9703,8.9763,8.9944,9.0083,9.0083,9.0029,8.9982,8.9839,8.9654,8.9553,8.94,8.9386,8.9371,8.9371,8.9371,8.9173,8.8898,8.8613,8.8376,8.8195,8.7016,8.602,8.5226,8.458,8.3889,8.3116,8.3116,8.3013,8.2904,8.3143,8.3223,8.1093,0.0,0.0,0.0,0.0,0.0,0.0,0.0,0.0,0.0,8.1093,0.0,0.0,0.0,0.0,0.0,0.0,8.1939,8.3401,8.3824,8.4478,8.594,8.6094,8.6094,8.6094,8.6901,8.7748,8.8632,8.944,9.0287,9.1171,9.121,9.121,9.121,9.121,9.121,9.121,9.121,9.1633,9.2479,9.2479,9.3056,9.4057,9.4057,9.4518,9.5365,9.5365,9.5711,9.6288,9.6288,9.6288,9.6288,9.6288,9.6288,9.6288,9.6288,9.6288,9.6288,9.6288,9.6288,9.6288,9.6288,9.5865,9.5288,9.5057,9.4557,9.3864,9.3056,9.2826,9.2633,9.1787,9.1446,9.1297,9.1029,9.0761,9.0558,9.0474,9.0212,8.9887,8.9692,8.9386,8.9119,8.8917,8.9243,8.9591,8.9591,8.9489,8.9386,8.9333,8.9081,8.8879,8.8823,8.8748,8.8766,8.8766,8.8766,8.8613,8.8354,8.7921,8.773,8.7665,8.6885,8.631,8.6023,8.53,8.4535,8.3728,8.3508,8.317,8.2675,8.277,8.2782,8.1093,8.1093,0.0,8.1093,0.0,0.0,0.0,0.0,8.1093,0.0,0.0,0.0,0.0,0.0,0.0,0.0,0.0,0.0,0.0,8.4324,8.517,8.6017,8.6094,8.6094,8.6094,8.6901,8.7748,8.8632,8.944,9.0287,9.1171,9.121,9.121,9.121,9.121,9.121,9.121,9.121,9.1633,9.2479,9.2479,9.3364,9.4941,9.4941,9.5441,9.6249,9.6249,9.6288,9.6288,9.6288,9.6288,9.6288,9.6288,9.6288,9.6288,9.6288,9.6288,9.6288,9.6288,9.6288,9.6288,9.6288,9.6288,9.6095,9.5249,9.498,9.4788,9.3903,9.3672,9.348,9.2672,9.2369,9.2027,9.1145,9.06,9.0307,9.0212,8.979,8.9386,8.9227,8.8842,8.8533,8.8354,8.8708,8.9047,8.9047,8.9047,8.8936,8.8554,8.8495,8.8376,8.8072,8.8072,8.801,8.801,8.801,8.7947,8.7794,8.7628,8.7431,8.7305,8.7268,8.6795,8.582,8.5783,8.538,8.4572,8.3801,8.3398,8.3361,8.2711,8.2534,8.2747,8.2747,8.2747,8.2747,8.2747,8.2747,0.0,0.0,0.0,0.0,0.0,0.0,0.0,0.0,0.0,0.0,0.0,0.0,0.0,8.517,8.5786,8.6055,8.6094,8.6094,8.6094,8.6363,8.7132,8.8594,8.894,8.971,9.1133,9.121,9.121,9.121,9.121,9.121,9.121,9.1787,9.2479,9.3287,9.3864,9.4749,9.5865,9.5865,9.6019,9.6288,9.6288,9.6288,9.6288,9.6288,9.6288,9.6288,9.6288,9.6288,9.6288,9.6288,9.6288,9.6288,9.6288,9.6288,9.6288,9.6288,9.6288,9.6249,9.5942,9.5865,9.5672,9.4788,9.4557,9.421,9.2753,9.2296,9.1951,9.0911,9.0389,9.0075,8.9839,8.9386,8.8898,8.8613,8.8293,8.7984,8.7821,8.7884,8.8072,8.8316,8.8256,8.8171,8.8047,8.7884,8.7821,8.7693,8.7693,8.7693,8.7693,8.76,8.7534,8.7468,8.7268,8.7132,8.7064,8.7064,8.6953,8.6591,8.6591,8.6187,8.538,8.5123,8.4719,8.4205,8.3978,8.3345,8.3593,8.3593,8.3593,8.3593,8.3593,8.3593,8.3593,8.3593,8.3593,0.0,0.0,0.0,0.0,0.0,0.0,0.0,0.0,0.0,0.0,8.5786,8.6094,8.6094,8.6094,8.6094,8.6094,8.6094,8.6824,8.8556,8.8709,8.944,9.1095,9.121,9.121,9.121,9.121,9.121,9.121,9.2056,9.2903,9.371,9.4557,9.5441,9.6288,9.6288,9.6288,9.6288,9.6288,9.6288,9.6288,9.6288,9.6288,9.6288,9.6288,9.6288,9.6288,9.6288,9.6288,9.6288,9.6288,9.6288,9.6288,9.6288,9.6288,9.6288,9.6288,9.6288,9.6172,9.5634,9.5405,9.4983,9.3254,9.2642,9.2174,9.0742,9.0075,8.9692,8.9386,8.8804,8.8376,8.8171,8.7858,8.76,8.7468,8.7365,8.7431,8.7757,8.7757,8.7665,8.76,8.7534,8.7365,8.7298,8.7298,8.7298,8.7298,8.7268,8.72,8.72,8.7064,8.6995,8.6995,8.6995,8.6995,8.6995,8.6995,8.6738,8.6224,8.593,8.5527,8.5013,8.4719,8.4058]},{"header":{"parameterUnit":"m.s-1","parameterCategory":1,"la1":30.6,"la2":29.2853,"lo1":-89.7004,"lo2":-87.6739,"dy":0.0162,"dx":0.0183,"nx":112,"ny":82,"refTime":"2024-02-13T06:00:00:Z","depth":0,"parameterNumber":3,"parameterNumberName":"V-component_of_WINDS"},"data":[0.0,0.0,0.0,0.0,0.0,0.0,0.0,0.0,0.0,0.0,0.0,0.0,0.0,0.0,0.0,0.0,0.0,0.0,0.0,0.0,0.0,0.0,0.0,0.0,0.0,0.0,0.0,0.0,0.0,0.0,0.0,0.0,0.0,0.0,0.0,0.0,0.0,0.0,0.0,0.0,0.0,0.0,0.0,0.0,0.0,0.0,0.0,0.0,0.0,0.0,0.0,0.0,0.0,0.0,0.0,0.0,0.0,0.0,0.0,0.0,0.0,0.0,0.0,0.0,0.0,0.0,0.0,0.0,0.0,0.0,0.0,0.0,0.0,0.0,0.0,0.0,0.0,0.0,0.0,0.0,0.0,0.0,0.0,0.0,0.0,0.0,0.0,0.0,0.0,0.0,0.0,0.0,0.0,0.0,0.0,0.0,-0.0584,-0.1895,0.0,0.0,0.0,0.0,0.0,0.0,0.0,0.0,0.0,0.0,0.0,0.0,0.0,0.0,0.0,0.0,0.0,0.0,0.0,0.0,0.0,0.0,0.0,0.0,0.0,0.0,0.0,0.0,0.0,0.0,0.0,0.0,0.0,0.0,0.0,0.0,0.0,0.0,0.0,0.0,0.0,0.0,0.0,0.0,0.0,0.0,0.0,0.0,0.0,0.0,0.0,0.0,0.0,0.0,0.0,0.0,0.0,0.0,0.0,0.0,0.0,0.0,0.0,0.0,0.0,0.0,0.0,0.0,0.0,0.0,0.0,0.0,0.0,0.0,0.0,0.0,0.0,0.0,0.0,0.0,0.0,0.0,0.0,0.0,0.0,0.0,0.0,0.0,0.0,0.0,0.0,0.0,0.0,0.0,0.0,0.0,0.0,0.0,0.0,0.0,0.0,0.0,0.0,0.0,0.0,0.0,0.0,0.0,0.0,0.0,-0.0146,-0.0292,0.0,0.0,0.0,0.0,0.0,0.0,0.0,0.0,0.0,0.0,0.0,0.0,0.0,0.0,0.0,0.0,0.0,0.0,0.0,0.0,0.0,0.0,0.0,0.0,0.0,0.0,0.0,0.0,0.0,0.0,0.0,0.0,0.0,0.0,0.0,0.0,0.0,0.0,0.0,0.0,0.0,0.0,0.0,0.0,0.0,0.0,0.0,0.0,0.0,0.0,0.0,0.0,0.0,0.0,0.0,0.0,0.0,0.0,0.0,0.0,0.0,0.0,0.0,0.0,0.0,0.0,0.0,0.0,0.0,0.0,0.0,0.0,0.0,0.0,0.0,0.0,0.0,0.0,0.0,0.0,0.0,0.0,0.0,0.0,0.0,0.0,0.0,0.0,0.0,0.0,0.0,0.0,0.0,0.0,0.0,0.0,0.0,0.0,0.0,0.0,0.0,0.0,0.0,0.0,0.0,0.0,0.0,0.0,0.0,0.0,0.0,0.0,-0.0729,0.0,0.0,0.0,0.0,0.0,0.0,0.0,0.0,0.0,0.0,0.0,0.0,0.0,0.0,0.0,0.0,0.0,0.0,0.0,0.0,0.0,0.0,0.0,0.0,0.0,0.0,0.0,0.0,0.0,0.0,0.0,0.0,0.0,0.0,0.0,0.0,0.0,0.0,0.0,0.0,0.0,0.0,0.0,0.0,0.0,0.0,0.0,0.0,0.0,0.0,0.0,0.0,0.0,0.0,0.0,0.0,0.0,0.0,0.0,0.0,0.0,0.0,0.0,0.0,0.0,0.0,0.0,0.0,0.0,0.0,0.0,0.0,0.0,0.0,0.0,0.0,0.0,0.0,0.0,0.0,0.0,0.0,0.0,0.0,0.0,0.0,0.0,0.0,0.0,0.0,0.0,0.0,0.0,0.0,0.0,0.0,0.0,0.0,0.0,0.0,0.0,0.0,0.0,0.0,0.0,0.0,0.0,0.0,0.0,0.0,0.0,0.0,0.0,0.0,0.0,0.0,0.0,0.0,0.0,0.0,0.0,0.0,0.0,0.0,0.0,0.0,0.0,0.0,0.0,0.0,0.0,0.0,0.0,0.0,0.0,0.0,0.0,0.0,0.0,0.0,0.0,0.0,0.0,0.0,0.0,0.0,0.0,0.0,0.0,0.0,0.0,0.0,0.0,0.0,0.0,0.0,0.0,0.0,0.0,0.0,0.0,0.0,0.0,0.0,0.0,0.0,0.0,0.0,0.0,0.0,0.0,0.0,0.0,0.0,0.0,0.0,0.0,0.0,0.0,0.0,0.0,0.0,0.0,0.0,0.0,0.0,0.0,0.0,0.0,0.0,0.0,0.0,0.0,0.0,0.0,0.0,0.0,0.0,0.0,0.0,0.0,0.0,0.0,0.0,0.0,0.0,0.0,0.0,0.0,0.0,0.0,0.0,0.0,0.0,0.0,0.0,0.0,0.0,0.0,0.0,0.0,0.0,0.0,0.0,0.0,0.0,0.0,0.0,0.0,0.0,0.0,0.0,0.0,0.0,0.0,0.0,0.0,0.0,0.0,0.0,0.0,0.0,0.0,0.0,0.0,0.0,0.0,0.0,0.0,0.0,0.0,0.0,0.0,0.0,0.0,0.0,0.0,0.0,0.0,0.0,0.0,0.0,0.0,0.0,0.0,0.0,0.0,0.0,0.0,0.0,0.0,0.0,0.0,0.0,0.0,0.0,0.0,0.0,0.0,0.0,0.0,0.0,0.0,0.0,0.0,0.0,0.0,0.0,0.0,0.0,0.0,0.0,0.0,0.0,0.0,0.0,0.0,0.0,0.0,0.0,0.0,0.0,0.0,0.0,0.0,0.0,0.0,0.0,0.0,0.0,0.0,0.0,0.0,0.0,0.0,0.0,0.0,0.0,0.0,0.0,0.0,0.0,0.0,0.0,0.0,0.0,0.0,0.0,0.0,0.0,0.0,0.0,0.0,0.0,0.0,0.0,0.0,0.0,0.0,0.0,0.0,0.0,0.0,0.0,0.0,0.0,0.0,0.0,0.0,0.0,0.0,0.0,0.0,0.0,0.0,0.0,0.0,0.0,0.0,0.0,0.0,0.0,0.0,0.0,0.0,0.0,0.0,0.0,0.0,0.0,0.0,0.0,0.0,0.0,0.0,0.0,0.0,0.0,0.0,0.0,0.0,0.0,0.0,0.0,0.0,0.0,0.0,0.0,0.0,0.0,0.0,0.0,0.0,0.0,0.0,0.0,0.0,0.0,0.0,0.0,0.0,0.0,0.0,0.0,0.0,0.0,0.0,0.0,0.0,0.0,0.0,0.0,0.0,0.0,0.0,0.0,0.0,0.0,0.0,0.0,0.0,0.0,0.0,0.0,0.0,0.0,0.0,0.0,0.0,0.0,0.0,0.0,0.0,0.0,0.0,0.0,0.0,0.0,0.0,0.0,0.0,0.0,0.0,0.0,0.0,0.0,0.0,0.0,0.0,0.0,0.0,0.0,0.0,0.0,0.0,0.0,0.0,0.0,0.0,0.0,0.0,0.0,0.0,0.0,0.0,0.0,0.0,0.0,0.0,0.0,0.0,0.0,0.0,0.0,0.0,0.0,0.0,0.0,0.0,0.0,0.0,0.0,0.0,0.0,0.0,0.0,0.0,0.0,0.0,0.0,0.0,0.0,0.0,0.0,0.0,0.0,0.0,0.0,0.0,0.0,0.0,0.0,0.0,0.0,0.0,0.0,0.0,0.0,0.0,0.0,0.0,0.0,0.0,0.0,0.0,0.0,0.0,0.0,0.0,0.0,0.0,0.0,0.0,0.0,0.0,0.0,0.0,0.0,0.0,0.0,0.0,0.0,0.0,0.0,0.0,0.0,0.0,0.0,0.0,0.0,0.0,0.0,0.0,0.0,0.0,0.0,0.0,0.0,0.0,0.0,0.0,0.0,0.0,0.0,0.0,0.0,0.0,0.0,0.0,0.0,0.0,0.0,0.0,0.0,0.0,0.0,0.0,0.0,0.0,0.0,0.0,0.0,0.0,0.0,0.0,0.0,0.0,0.0,0.0,0.0,0.0,0.0,0.0,0.0,0.0,0.0,0.0,0.0,0.0,0.0,0.0,0.0,0.0,0.0,0.0,0.0,0.0,0.0,0.0,0.0,0.0,0.0,0.0,0.0,0.0,0.0,0.0,0.0,0.0,0.0,0.0,0.0,0.0,0.0,0.0,0.0,0.0,0.0,0.0,0.0,0.0,0.0,0.0,0.0,0.0,0.0,0.0,0.0,0.0,0.0,0.0,0.0,0.0,0.0,0.0,0.0,0.0,0.0,0.0,0.0,0.0,0.0,0.0,0.0,0.0,0.0,0.0,0.0,0.0,0.0,0.0,0.0,0.0,0.0,0.0,0.0,0.0,0.0,0.0,0.0,0.0,0.0,0.0,0.0,0.0,0.0,0.0,0.0,0.0,0.0,0.0,0.0,0.0,0.0,0.0,0.0,0.0,0.0,0.0,0.0,0.0,0.0,0.0,0.0,0.0,0.0,0.0,0.0,0.0,0.0,0.0,0.0,0.0,0.0,0.0,0.0,0.0,0.0,0.0,0.0,0.0,0.0,0.0,0.0,0.0,0.0,0.0,0.0,0.0,0.0,0.0,0.0,0.0,0.0,0.0,0.0,0.0,0.0,0.0,0.0,0.0,0.0,0.0,0.0,0.0,0.0,0.0,0.0,0.0,0.0,0.0,0.0,0.0,0.0,0.0,0.0,0.0,0.0,0.0,0.0,0.0,0.0,0.0,0.0,0.0,0.0,0.0,0.0,0.0,0.0,0.0,0.0,0.0,0.0,0.0,0.0,0.0,0.0,0.0,0.0,0.0,0.0,0.0,0.0,0.0,0.0,0.0,0.0,0.0,0.0,0.0,0.0,0.0,0.0,0.0,0.0,0.0,0.0,0.0,0.0,0.0,0.0,0.0,0.0,0.0,0.0,0.0,0.0,0.0,0.0,0.0,0.0,0.0,0.0,0.0,0.0,0.0,0.0,0.0,0.0,0.0,0.0,0.0,0.0,0.0,0.0,0.0,0.0,0.0,0.0,0.0,0.0,0.0,0.0,0.0,0.0,0.0,0.0,0.0,0.0,0.0,0.0,0.0,0.0,0.0,0.0,0.0,0.0,0.0,0.0,0.0,0.0,0.0,0.0,0.0,0.0,0.0,0.0,0.0,0.0,0.0,0.0,0.0,0.0,0.0,0.0,0.0,0.0,0.0,0.0,0.0,0.0,0.0,0.0,0.0,0.0,0.0,0.0,0.0,0.0,0.0,0.0,0.0,0.0,0.0,0.0,0.0,0.0,0.0,0.0,0.0,0.0,0.0,0.0,0.0,0.0,0.0,0.0,0.0,0.0,0.0,0.0,0.0,0.0,0.0,0.0,0.0,0.0,0.0,0.0,0.0,0.0,0.0,0.0,0.0,0.0,0.0,0.0,0.0,0.0,0.0,0.0,0.0,0.0,0.0,0.0,0.0,0.0,0.0,0.0,0.0,0.0,0.0,0.0,0.0,0.0,0.0,0.0,0.0,0.0,0.0,0.0,0.0,0.0,0.0,0.0,0.0,0.0,0.0,0.0,0.0,0.0,0.0,0.0,0.0,0.0,0.0,0.0,0.0,0.0,0.0,0.0,0.0,0.0,0.0,0.0,0.0,0.0,0.0,0.0,0.0,0.0,0.0,0.0,0.0,0.0,0.0,0.0,0.0,0.0,0.0,0.0,0.0,0.0,0.0,0.0,0.0,0.0,0.0,0.0,0.0,0.0,0.0,0.0,0.0,0.0,0.0,0.0,0.0,0.0,0.0,0.0,0.0,0.0,0.0,0.0,0.0,0.0,0.0,0.0,0.0,0.0,0.0,0.0,0.0,0.0,0.0,0.0,0.0,0.0,0.0,0.0,0.0,0.0,0.0,0.0,0.0,0.0,0.0,0.0,0.0,0.0,0.0,0.0,0.0,0.0,0.0,0.0,0.0,0.0,0.0,0.0,0.0,0.0,0.0,0.0,0.0,0.0,0.0,0.0,0.0,0.0,0.0,0.0,0.0,0.0,0.0,0.0,0.0,0.0,0.0,0.0,0.0,0.0,0.0,0.0,0.0,0.0,0.0,0.0,0.0,0.0,0.0,0.0,0.0,0.0,0.0,0.0,0.0,0.0,0.0,0.0,0.0,0.0,0.0,0.0,0.0,0.0,0.0,0.0,0.0,0.0,0.0,0.0,0.0,0.0,0.0,0.0,0.0,0.0,0.0,0.0,0.0,0.0,0.0,0.0,0.0,0.0,0.0,0.0,0.0,0.0,0.0,0.0,0.0,0.0,0.0,0.0,0.0,0.0,0.0,0.0,0.0,0.0,0.0,0.0,0.0,0.0,0.0,0.0,0.0,0.0,0.0,0.0,0.0,0.0,0.0,0.0,0.0,0.0,0.0,0.0,0.0,0.0,0.0,0.0,0.0,0.0,0.0,0.0,0.0,0.0,0.0,0.0,0.0,0.0,0.0,0.0,0.0,0.0,0.0,0.0,0.0,0.0,0.0,0.0,0.0,0.0,0.0,0.0,0.0,0.0,0.0,0.0,0.0,0.0,0.0,0.0,0.0,0.0,0.0,0.0,0.0,0.0,0.0,0.0,0.0,0.0,0.0,0.0,0.0,0.0,0.0,0.0,0.0,0.0,0.0,0.0,0.0,0.0,0.0,0.0,0.0,0.0,0.0,0.0,0.0,0.0,0.0,0.0,0.0,0.0,0.0,0.0,0.0,0.0,0.0,0.0,0.0,0.0,0.0,0.0,0.0,0.0,0.0,0.0,0.0,0.0,0.0,0.0,0.0,0.0,0.0,0.0,0.0,0.0,0.0,0.0,0.0,0.0,0.0,0.0,0.0,0.0,0.0,0.0,0.0,0.0,0.0,0.0,0.0,0.0,0.0,0.0,0.0,0.0,0.0,0.0,0.0,0.0,0.0,0.0,0.0,0.0,0.0,0.0,0.0,0.0,0.0,0.0,0.0,0.0,0.0,0.0,0.0,0.0,0.0,0.0,0.0,0.0,0.0,0.0,0.0,0.0,0.0,0.0,0.0,0.0,0.0,0.0,0.0,0.0,0.0,0.0,0.0,0.0,0.0,0.0,0.0,0.0,0.0,0.0,0.0,0.0,0.0,0.0,0.0,0.0,0.0,0.0,0.0,0.0,0.0,0.0,0.0,0.0,0.0,0.0,0.0,0.0,0.0,0.0,0.0,0.0,0.0,0.0,0.0,0.0,0.0,0.0,0.0,0.0,0.0,0.0,0.0,0.0,0.0,0.0,0.0,0.0,0.0,0.0,0.0,0.0,0.0,0.0,0.0,0.0,0.0,0.0,0.0,0.0,0.0,0.0,0.0,0.0,0.0,0.0,0.0,0.0,0.0,0.0,0.0,0.0,0.0,0.0,0.0,0.0,0.0,0.0,0.0,0.0,0.0,0.0,0.0,0.0,0.0,0.0,0.0,0.0,0.0,0.0,0.0,0.0,0.0,0.0,0.0,0.0,0.0,0.0,0.0,0.0,0.0,0.0,0.0,0.0,0.0,0.0,0.0,0.0,0.0,0.0,0.0,0.0,0.0,0.0,0.0,0.0,0.0,0.0,0.0,0.0,0.0,0.0,0.0,0.0,0.0,0.0,0.0,0.0,0.0,0.0,0.0,0.0,0.0,0.0,0.0,0.0,0.0,0.0,0.0,0.0,0.0,0.0,0.0,0.0,0.0,0.0,0.0,0.0,0.0,0.0,0.0,0.0,0.0,0.0,0.0,0.0,0.0,0.0,0.0,0.0,0.0,0.0,0.0,0.0,0.0,0.0,0.0,0.0,0.0,0.0,0.0,0.0,0.0,0.0,0.0,0.0,0.0,0.0,0.0,0.0,0.0,0.0,0.0,0.0,0.0,0.0,0.0,0.0,0.0,0.0,0.0,0.0,0.0,0.0,0.0,0.0,0.0,0.0,0.0,0.0,0.0,0.0,0.0,0.0,0.0,0.0,0.0,0.0,0.0,0.0,0.0,0.0,0.0,0.0,0.0,0.0,0.0,0.0,0.0,0.0,0.0,0.0,0.0,0.0,0.0,0.0,0.0,0.0,0.0,0.0,0.0,0.0,0.0,0.0,0.0,0.0,0.0,0.0,0.0,0.0,0.0,0.0,0.0,0.0,0.0,0.0,0.0,0.0,0.0,0.0,0.0,0.0,0.0,0.0,0.0,0.0,0.0,0.0,0.0,0.0,0.0,0.0,0.0,0.0,0.0,0.0,0.0,0.0,0.0,0.0,0.0,0.0,0.0,0.0,0.0,0.0,0.0,0.0,0.0,0.0,0.0,0.0,0.0,0.0,0.0,0.0,0.0,0.0,0.0,0.0,0.0,0.0,0.0,0.0,0.0,0.0,0.0,0.0,0.0,0.0,0.0,0.0,0.0,0.0,0.0,0.0,0.0,0.0,0.0,0.0,0.0,0.0,0.0,0.0,0.0,0.0,0.0,0.0,0.0,0.0,0.0,0.0,0.0,0.0,0.0,0.0,0.0,0.0,0.0,0.0,0.0,0.0,0.0,0.0,0.0,0.0,0.0,0.0,0.0,0.0,0.0,0.0,0.0,0.0,0.0,0.0,0.0,0.0,0.0,0.0,0.0,0.0,0.0,0.0,0.0,0.0,0.0,0.0,0.0,0.0,0.0,0.0,0.0,0.0,0.0,0.0,0.0,0.0,0.0,0.0,0.0,0.0,0.0,0.0,0.0,0.0,0.0,0.0,0.0,0.0,0.0,0.0,0.0,0.0,0.0,0.0,0.0,0.0,0.0,0.0,0.0,0.0,0.0,0.0,0.0,0.0,0.0,0.0,0.0,0.0,0.0,0.0,0.0,0.0,0.0,0.0,0.0,0.0,0.0,0.0,0.0,0.0,0.0,0.0,0.0,0.0,0.0,0.0,0.0,0.0,0.0,0.0,0.0,0.0,0.0,0.0,0.0,0.0,0.0,0.0,0.0,0.0,0.0,0.0,0.0,0.0,0.0,0.0,0.0,0.0,0.0,0.0,0.0,0.0,0.0,0.0,0.0,0.0,0.0,0.0,0.0,0.0,0.0,0.0,0.0,0.0,0.0,0.0,0.0,0.0,0.0,0.0,0.0,0.0,0.0,0.0,0.0,0.0,0.0,0.0,0.0,0.0,0.0,0.0,0.0,0.0,0.0,0.0,0.0,0.0,0.0,0.0,0.0,0.0,0.0,0.0,0.0,0.0,0.0,0.0,0.0,0.0,0.0,0.0,0.0,0.0,0.0,0.0,0.0,0.0,0.0,0.0,0.0,0.0,0.0,0.0,0.0,0.0,0.0,0.0,0.0,0.0,0.0,0.0,0.0,0.0,0.0,0.0,0.0,0.0,0.0,0.0,0.0,0.0,0.0,0.0,0.0461,0.0,0.0,0.0,0.0,0.0,0.0,0.0,0.0,0.0,0.0,0.0,0.0,0.0,0.0,0.0,0.0,0.0,0.0,0.0,0.0,0.0,0.0,0.0,0.0,0.0,0.0,0.0,0.0,0.0,0.0,0.0,0.0,0.0,0.0,0.0,0.0,0.0,0.0,0.0,0.0,0.0,0.0,0.0,0.0,0.0,0.0,0.0,0.0,0.0,0.0,0.0,0.0,0.0,0.0,0.0,0.0,0.0,0.0,0.0,0.0,0.0,0.0,0.0,0.0,0.0,0.0,0.0,0.0,0.0,0.0,0.0,0.0,0.0,0.0,0.0,0.0,0.0,0.0,0.0,0.0,0.0,0.0,0.0,0.0,0.0,0.0,0.0,0.0,0.0,0.0,0.0,0.0,0.0,0.0,0.0,0.0,0.0,0.0,0.0,0.0,0.0,0.0,0.0,0.0,0.0,0.0,0.0,0.0,0.0,0.0,0.0621,0.1388,0.2469,0.0,0.0,0.0,0.0,0.0,0.0,0.0,0.0,0.0,0.0,0.0,0.0,0.0,0.0,0.0,0.0,0.0,0.0,0.0,0.0,0.0,0.0,0.0,0.0,0.0,0.0,0.0,0.0,0.0,0.0,0.0,0.0,0.0,0.0,0.0,0.0,0.0,0.0,0.0,0.0,0.0,0.0,0.0,0.0,0.0,0.0,0.0,0.0,0.0,0.0,0.0,0.0,0.0,0.0,0.0,0.0,0.0,0.0,0.0,0.0,0.0,0.0,0.0,0.0,0.0,0.0,0.0,0.0,0.0,0.0,0.0,0.0,0.0,0.0,0.0,0.0,0.0,0.0,0.0,0.0,0.0,0.0,0.0,0.0,0.0,0.0,0.0,0.0,0.0,0.0,0.0,0.0,0.0,0.0,0.0,0.0,0.0,0.0,0.0,0.0,0.0,0.0,0.0,0.0,0.0,0.0,0.0,0.0,0.0,0.1708,0.247,0.247,0.0,0.0,0.0,0.0,0.0,0.0,0.0,0.0,0.0,0.0,0.0,0.0,0.0,0.0,0.0,0.0,0.0,0.0,0.0,0.0,0.0,0.0,0.0,0.0,0.0,0.0,0.0,0.0,0.0,0.0,0.0,0.0,0.0,0.0,0.0,0.0,0.0,0.0,0.0,0.0,0.0,0.0,0.0,0.0,0.0,0.0,0.0,0.0,0.0,0.0,0.0,0.0,0.0,0.0,0.0,0.0,0.0,0.0,0.0,0.0,0.0,0.0,0.0,0.0,0.0,0.0,0.0,0.0,0.0,0.0,0.0,0.0,0.0,0.0,0.0,0.0,0.0,0.0,0.0,0.0,0.0,0.0,0.0,0.0,0.0,0.0,0.0,0.0,0.0,0.0,0.0,0.0,0.0,0.0,0.0,0.0,0.0,0.0,0.0,0.0,0.0,0.0,0.0,0.0,0.0,0.0,0.0,0.0628,0.1728,0.2193,0.2658,0.0,0.0,0.0,0.0,0.0,0.0,0.0,0.0,0.0,0.0,0.0,0.0,0.0,0.0,0.0,0.0,0.0,0.0,0.0,0.0,0.0,0.0,0.0,0.0,0.0,0.0,0.0,0.0,0.0,0.0,0.0,0.0,0.0,0.0,0.0,0.0,0.0,0.0,0.0,0.0,0.0,0.0,0.0,0.0,0.0,0.0,0.0,0.0,0.0,0.0,0.0,0.0,0.0,0.0,0.0,0.0,0.0,0.0,0.0,0.0,0.0,0.0,0.0,0.0,0.0,0.0,0.0,0.0,0.0,0.0,0.0,0.0,0.0,0.0,0.0,0.0,0.0,0.0,0.0,0.0,0.0,0.0,0.0,0.0,0.0,0.0,0.0,0.0,0.0,0.0,0.0,0.0,0.0,0.0,0.0,0.0,0.0,0.0,0.0,0.0,0.0,0.0,0.0,0.0,0.0,0.0318,0.095,0.1102,0.0,0.0,0.0,0.2987,0.3458,0.4055,0.0,0.0,0.4982,0.5537,0.0,0.0,0.0,0.0,0.0,0.0,0.0,0.0,0.0,0.0,0.0,0.0,0.0,0.0,0.0,0.0,0.0,0.0,0.0,0.0,0.0,0.0,0.0,0.0,0.0,0.0,0.0,0.0,0.0,0.0,0.0,0.0,0.0,0.0,0.0,0.0,0.0,0.0,0.0,0.0,0.0,0.0,0.0,0.0,0.0,0.0,0.0,0.0,0.0,0.0,0.0,0.0,0.0,0.0,0.0,0.0,0.0,0.0,0.0,0.0,0.0,0.0,0.0,0.0,0.0,0.0,0.0,0.0,0.0,0.0,0.0,0.0,0.0,0.0,0.0,0.0,0.0,0.0,0.0,0.0,0.0,0.0,0.032,0.016,0.0,0.0,0.0,0.0,0.0326,0.0326,0.0326,0.0163,0.0163,0.0,0.0163,0.0163,0.0163,0.0163,0.0163,0.081,0.224,0.2534,0.2361,0.1571,0.2828,0.3458,0.3615,0.4709,0.5332,0.5796,0.6125,0.6362,0.0,0.0,0.0,0.0,0.0,0.0,0.0,0.0,0.0,0.0,0.0,0.0,0.0,0.0,0.0,0.0,0.0,0.0,0.0,0.0,0.0,0.0,0.0,0.0,0.0,0.0,0.0,0.0,0.0,0.0,0.0,0.0,0.0,0.0,0.0,0.0,0.0,0.0,0.0,0.0,0.0,0.0,0.0,0.0,0.0,0.0,0.0,0.0,0.0,0.0,0.0,0.0,0.0,0.0,0.0,0.0,0.0,0.0,0.0,0.0,0.0,0.0,0.0,0.0,0.0,0.0,0.0,0.0,0.0,0.0,0.0,0.0,0.0,0.0,0.0,0.0,0.0,0.0,0.0,0.0,0.0,0.0487,0.1947,0.0974,0.0,0.0,0.0,0.049,0.1979,0.2146,0.1822,0.1169,0.1003,0.1003,0.1003,0.0995,0.099,0.099,0.0982,0.1133,0.144,0.2874,0.3335,0.2987,0.3613,0.4241,0.4709,0.5648,0.6427,0.7209,0.7411,0.7973,0.0,0.0,0.0,0.0,0.0,0.0,0.0,0.0,0.0,0.0,0.0,0.0,0.0,0.0,0.0,0.0,0.0,0.0,0.0,0.0,0.0,0.0,0.0,0.0,0.0,0.0,0.0,0.0,0.0,0.0,0.0,0.0,0.0,0.0,0.0,0.0,0.0,0.0,0.0,0.0,0.0,0.0,0.0,0.0,0.0,0.0,0.0,0.0,0.0,0.0,0.0,0.0,0.0,0.0,0.0,0.0,0.0,0.0,0.0,0.0,0.0,0.0,0.0,0.0,0.0,0.0,0.0,0.0,0.0,0.0,0.0,0.0,0.0,0.0,0.0,0.0,0.0,0.0,0.0323,0.1129,0.1303,0.1478,0.197,0.198,0.1652,0.0822,0.066,0.0995,0.1834,0.2839,0.3179,0.2691,0.2692,0.2692,0.2692,0.2679,0.2672,0.2672,0.2643,0.2782,0.3254,0.4044,0.4493,0.428,0.4749,0.5209,0.5645,0.6431,0.7369,0.8462,0.9026,0.9464,0.0,0.0,0.0,0.0,0.0,0.0,0.0,0.0,0.0,0.0,0.0,0.0,0.0,0.0,0.0,0.0,0.0,0.0,0.0,0.0,0.0,0.0,0.0,0.0,0.0,0.0,0.0,0.0,0.0,0.0,0.0,0.0,0.0,0.0,0.0,0.0,0.0,0.0,0.0,0.0,0.0,0.0,0.0,0.0,0.0,0.0,0.0,0.0,0.0,0.0,0.0,0.0,0.0,0.0,0.0,0.0,0.0,0.0,0.0,0.0,0.0,0.0,0.0,0.0,0.0,0.0,0.0,0.0,0.0,0.0,0.0,0.0,0.0,0.0,0.0,0.0161,0.0487,0.0489,0.098,0.245,0.2803,0.2824,0.2159,0.3346,0.3692,0.1996,0.1841,0.185,0.2018,0.3365,0.4208,0.4208,0.4208,0.4208,0.4208,0.4376,0.4374,0.4374,0.4505,0.4809,0.5622,0.5573,0.5677,0.5611,0.5925,0.6366,0.6766,0.755,0.848,0.9558,1.0486,1.0641,0.0,0.0,0.0,0.0,0.0,0.0,0.0,0.0,0.0,0.0,0.0,0.0,0.0,0.0,0.0,0.0,0.0,0.0,0.0,0.0,0.0,0.0,0.0,0.0,0.0,0.0,0.0,0.0,0.0,0.0,0.0,0.0,0.0,0.0,0.0,0.0,0.0,0.0,0.0,0.0,0.0,0.0,0.0,0.0,0.0,0.0,0.0,0.0,0.0,0.0,0.0,0.0,0.0,0.0,0.0,0.0,0.0,0.0,0.0,0.0,0.0,0.0,0.0,0.0,0.0,0.0,0.0,0.0,0.0,0.0,0.0,0.0,0.0,0.0,0.0,0.0488,0.2116,0.2462,0.2479,0.2643,0.3334,0.4034,0.487,0.5043,0.4878,0.3866,0.37,0.404,0.488,0.5048,0.5216,0.5211,0.5211,0.5211,0.5211,0.5544,0.5709,0.5709,0.6208,0.651,0.6608,0.6927,0.7047,0.7132,0.7451,0.7729,0.8119,0.8907,0.9489,1.0019,1.1262,1.1727,0.0,0.0,0.0,0.0,0.0,0.0,0.0,0.0,0.0,0.0,0.0,0.0,0.0,0.0,0.0,0.0,0.0,0.0,0.0,0.0,0.0,0.0,0.0,0.0,0.0,0.0,0.0,0.0,0.0,0.0,0.0,0.0,0.0,0.0,0.0,0.0,0.0,0.0,0.0,0.0,0.0,0.0,0.0,0.0,0.0,0.0,0.0,0.0,0.0,0.0,0.0,0.0,0.0,0.0,0.0,0.0,0.0,0.0,0.0,0.0,0.0,0.0,0.0,0.0,0.0,0.0,0.0,0.0,0.0,0.0,0.0,0.0814,0.1631,0.1642,0.1151,0.1152,0.2486,0.3166,0.3679,0.4178,0.4528,0.5048,0.5714,0.605,0.605,0.605,0.5547,0.5379,0.5714,0.6218,0.6738,0.6951,0.7163,0.7188,0.7188,0.7149,0.7293,0.7293,0.7585,0.804,0.8335,0.8663,0.8948,0.9178,0.9336,0.9607,0.9977,1.0297,1.0713,1.1221,1.1698,1.2115,0.0,0.0,0.0,0.0,0.0,0.0,0.0,0.0,0.0,0.0,0.0,0.0,0.0,0.0,0.0,0.0,0.0,0.0,0.0,0.0,0.0,0.0,0.0,0.0,0.0,0.0,0.0,0.0,0.0,0.0,0.0,0.0,0.0,0.0,0.0,0.0,0.0,0.0,0.0,0.0,0.0,0.0,0.0,0.0,0.0,0.0,0.0,0.0,0.0,0.0,0.0,0.0,0.0,0.0,0.0,0.0,0.0,0.0,0.0,0.0,0.0,0.0,0.0,0.0,0.0,0.0,0.0,0.0,0.0329,0.0822,0.0822,0.1479,0.2471,0.2989,0.2496,0.2333,0.3192,0.3871,0.4712,0.5549,0.5732,0.6081,0.6916,0.7271,0.7796,0.8298,0.7957,0.7443,0.7084,0.7776,0.8662,0.891,0.9149,0.9189,0.9189,0.9126,0.9256,0.9256,0.9497,0.9775,1.0111,1.0414,1.0688,1.0936,1.0936,1.1038,1.1391,1.1391,1.1647,1.2159,1.2318,1.2417,0.0,0.0,0.0,0.0,0.0,0.0,0.0,0.0,0.0,0.0,0.0,0.0,0.0,0.0,0.0,0.0,0.0,0.0,0.0,0.0,0.0,0.0,0.0,0.0,0.0,0.0,0.0,0.0,0.0,0.0,0.0,0.0,0.0,0.0,0.0,0.0,0.0,0.0,0.0,0.0,0.0,0.0,0.0,0.0,0.0,0.0,0.0,0.0,0.0,0.0,0.0,0.0,0.0,0.0,0.0,0.0,0.0,0.0,0.0,0.0,0.0,0.0,0.0,0.0,0.0,0.0,0.0,0.0,0.1346,0.2692,0.2692,0.2018,0.1848,0.3533,0.387,0.4206,0.5048,0.5384,0.5549,0.6553,0.6778,0.734,0.921,0.9635,1.0047,1.0907,1.1423,1.1036,0.9729,1.0491,1.1079,1.1085,1.109,1.109,1.109,1.1429,1.1773,1.1773,1.1998,1.227,1.227,1.2142,1.2069,1.2063,1.2063,1.1995,1.1855,1.2344,1.2443,1.2308,1.2789,1.2949,0.0,0.0,0.0,0.0,0.0,0.0,0.0,0.0,0.0,0.0,0.0,0.0,0.0,0.0,0.0,0.0,0.0,0.0,0.0,0.0,0.0,0.0,0.0,0.0,0.0,0.0,0.0,0.0,0.0,0.0,0.0,0.0,0.0,0.0,0.0,0.0,0.0,0.0,0.0,0.0,0.0,0.0,0.0,0.0,0.0,0.0,0.0,0.0,0.0,0.0,0.0,0.0,0.0,0.0,0.0,0.0,0.0,0.0,0.0,0.0,0.0,0.0,0.0,0.0,0.0,0.0,0.0168,0.1516,0.219,0.2864,0.3369,0.3199,0.3197,0.4544,0.5076,0.5272,0.6117,0.6666,0.7213,0.8582,0.8779,0.9316,1.0859,1.1063,1.129,1.2068,1.2009,1.1761,1.1544,1.1997,1.2253,1.2253,1.2336,1.239,1.239,1.2307,1.2427,1.2427,1.265,1.2879,1.279,1.2907,1.3004,1.2906,1.2899,1.288,1.2827,1.2992,1.3083,1.2936,1.3098,1.3051,0.0,0.0,0.0,0.0,0.0,0.0,0.0,0.0,0.0,0.0,0.0,0.0,0.0,0.0,0.0,0.0,0.0,0.0,0.0,0.0,0.0,0.0,0.0,0.0,0.0,0.0,0.0,0.0,0.0,0.0,0.0,0.0,0.0,0.0,0.0,0.0,0.0,0.0,0.0,0.0,0.0,0.0,0.0,0.0,0.0,0.0,0.0,0.0,0.0,0.0,0.0,0.0,0.0,0.0,0.0,0.0,0.0,0.0,0.0,0.0,0.0,0.0,0.0,0.0,0.0,0.0514,0.1363,0.2386,0.2898,0.3239,0.4089,0.4087,0.4427,0.5617,0.5986,0.6359,0.773,0.8289,0.8848,1.0229,1.0605,1.0982,1.2194,1.2582,1.2817,1.3261,1.3016,1.2786,1.296,1.3041,1.3273,1.3273,1.3356,1.3413,1.3413,1.3324,1.3273,1.3273,1.3487,1.3541,1.3449,1.3566,1.3634,1.3485,1.3485,1.3458,1.3403,1.3403,1.3349,1.3254,1.3254,1.3207,0.0,0.0,0.0,0.0,0.0,0.0,0.0,0.0,0.0,0.0,0.0,0.0,0.0,0.0,0.0,0.0,0.0,0.0,0.0,0.0,0.0,0.0,0.0,0.0,0.0,0.0,0.0,0.0,0.0,0.0,0.0,0.0,0.0,0.0,0.0,0.0,0.0,0.0,0.0,0.0,0.0,0.0,0.0,0.0,0.0,0.0,0.0,0.0,0.0,0.0,0.0,0.0,0.0,0.0,0.0,0.0,0.0,0.0,0.0,0.0,0.0,0.0,0.0,0.0,0.0174,0.1392,0.2958,0.2958,0.3305,0.4001,0.452,0.4867,0.5388,0.6775,0.7122,0.7645,0.9548,0.9899,1.0422,1.1624,1.2073,1.233,1.321,1.3852,1.4299,1.4299,1.4299,1.4122,1.3768,1.3945,1.4299,1.4299,1.4299,1.4299,1.4299,1.4299,1.4299,1.4299,1.4163,1.4082,1.4075,1.3933,1.3783,1.3641,1.3641,1.3566,1.341,1.341,1.341,1.3403,1.3403,1.3403,0.0,0.0,0.0,0.0,0.0,0.0,0.0,0.0,0.0,0.0,0.0,0.0,0.0,0.0,0.0,0.0,0.0,0.0,0.0,0.0,0.0,0.0,0.0,0.0,0.0,0.0,0.0,0.0,0.0,0.0,0.0,0.0,0.0,0.0,0.0,0.0,0.0,0.0,0.0,0.0,0.0,0.0,0.0,0.0,0.0,0.0,0.0,0.0,0.0,0.0,0.0,0.0,0.0,0.0,0.0,0.0,0.0,0.0,0.0,0.0,0.0,0.0,0.0,0.0352,0.1761,0.2451,0.2958,0.3479,0.4001,0.4694,0.5214,0.5908,0.6775,0.8157,0.9078,1.0005,1.1226,1.1823,1.2243,1.2947,1.3507,1.3709,1.4062,1.4272,1.4299,1.4299,1.4299,1.4299,1.4122,1.4299,1.4299,1.4299,1.4299,1.4299,1.4299,1.4299,1.4299,1.4299,1.4265,1.419,1.4075,1.4034,1.3939,1.379,1.3783,1.3715,1.3573,1.3573,1.3512,1.3403,1.3403,1.3403,0.0,0.0,0.0,0.0,0.0,0.0,0.0,0.0,0.0,0.0,0.0,0.0,0.0,0.0,0.0,0.0,0.0,0.0,0.0,0.0,0.0,0.0,0.0,0.0,0.0,0.0,0.0,0.0,0.0,0.0,0.0,0.0,0.0,0.0,0.0,0.0,0.0,0.0,0.0,0.0,0.0,0.0,0.0,0.0,0.0,0.0,0.0,0.0,0.0,0.0,0.0,0.0,0.0,0.0,0.018,0.0898,0.1257,0.1257,0.0718,0.0539,0.0718,0.1077,0.1252,0.1423,0.1958,0.2658,0.3351,0.4058,0.4586,0.5288,0.6341,0.722,0.8448,0.9849,1.0776,1.1527,1.2583,1.2997,1.3413,1.3768,1.4122,1.4299,1.4299,1.4299,1.4299,1.4299,1.4299,1.4299,1.4299,1.4299,1.4299,1.4299,1.4299,1.4299,1.4299,1.4299,1.4299,1.4299,1.4299,1.4265,1.4177,1.417,1.4102,1.3946,1.3939,1.3871,1.3722,1.3722,1.3682,1.3593,1.3593,1.3593,0.0,0.0,0.0,0.0,0.0,0.0,0.0,0.0,0.0,0.0,0.0,0.0,0.0,0.0,0.0,0.0,0.0,0.0,0.0,0.0,0.0,0.0,0.0,0.0,0.0,0.0,0.0,0.0,0.0,0.0,0.0,0.0,0.0,0.0,0.0,0.0,0.0,0.0,0.0,0.0,0.0,0.0,0.0,0.018,0.0359,0.0359,0.018,0.018,0.018,0.018,0.018,0.018,0.018,0.018,0.0359,0.2156,0.2874,0.2874,0.2154,0.1795,0.1975,0.2515,0.2874,0.2874,0.1975,0.2872,0.4128,0.4845,0.5562,0.6276,0.7885,0.8956,1.0021,1.1277,1.1988,1.2698,1.3591,1.3768,1.3768,1.4299,1.4299,1.4299,1.4299,1.4299,1.4299,1.4299,1.4299,1.4299,1.4299,1.4299,1.4299,1.4299,1.4299,1.4299,1.4299,1.4299,1.4299,1.4299,1.4299,1.4299,1.4299,1.4299,1.4238,1.4102,1.4102,1.4027,1.3871,1.3871,1.3858,1.3838,1.3838,1.3838,0.0,0.0,0.0,0.0,0.0,0.0,0.0,0.0,0.0,0.0,0.0,0.0,0.0,0.0,0.0,0.0,0.0,0.0,0.0,0.0,0.0,0.0,0.0,0.0,0.0,0.0,0.0,0.0,0.0,0.0,0.0,0.0,0.0,0.0,0.0,0.0,0.0,0.0,0.0,0.0,0.0,0.0,0.0,0.1616,0.2335,0.2335,0.1436,0.1077,0.1077,0.1077,0.1077,0.1077,0.1077,0.1077,0.1257,0.1616,0.2693,0.3949,0.3769,0.3769,0.359,0.2154,0.2693,0.3949,0.359,0.4305,0.5562,0.6097,0.6812,0.7885,0.9308,1.0382,1.1455,1.2343,1.3053,1.3591,1.4122,1.4122,1.4122,1.4299,1.4299,1.4299,1.4299,1.4299,1.4299,1.4299,1.4299,1.4299,1.4299,1.4299,1.4299,1.4299,1.4299,1.4299,1.4299,1.4299,1.4299,1.4299,1.4299,1.4299,1.4299,1.4299,1.4285,1.4265,1.4258,1.4183,1.4034,1.4034,1.3966,1.3838,1.3838,1.3838,0.0,0.0,0.0,0.0,0.0,0.0,0.0,0.0,0.0,0.0,0.0,0.0,0.0,0.0,0.0,0.0,0.0,0.0,0.0,0.0,0.0,0.0,0.0,0.0,0.0,0.0,0.0,0.0,0.0898,0.1077,0.0,0.0,0.0,0.0,0.0,0.0539,0.1436,0.1436,0.1257,0.0718,0.0718,0.0718,0.0718,0.1616,0.2693,0.3592,0.3052,0.2872,0.2872,0.2872,0.2872,0.2872,0.2872,0.2872,0.3052,0.3409,0.4307,0.5025,0.5025,0.5204,0.5201,0.4303,0.4485,0.5025,0.5201,0.5739,0.6633,0.7345,0.8238,0.9308,1.056,1.1449,1.2343,1.3053,1.3591,1.3945,1.4299,1.4299,1.4299,1.4299,1.4299,1.4299,1.4299,1.4299,1.4299,1.4299,1.4299,1.4299,1.4299,1.4299,1.4299,1.4299,1.4299,1.4299,1.4299,1.4299,1.4299,1.4299,1.4299,1.4299,1.4299,1.4299,1.4299,1.4299,1.4299,1.4265,1.419,1.419,1.415,1.4082,1.4082,1.4082,0.0,0.0,0.0,0.0,0.0,0.0,0.0,0.0,0.0,0.0,0.0,0.0,0.0,0.0,0.0,0.0,0.0,0.0,0.0,0.0,0.0,0.0,0.0,0.0,0.0,0.0359,0.0,0.0539,0.1795,0.1976,0.0718,0.0359,0.0359,0.0359,0.0359,0.1077,0.2515,0.3053,0.2874,0.1975,0.1975,0.1975,0.1975,0.2154,0.3231,0.4666,0.4666,0.4666,0.4666,0.4666,0.4666,0.4666,0.4666,0.4666,0.4845,0.5562,0.5918,0.6097,0.6097,0.6454,0.6991,0.7167,0.6812,0.6276,0.663,0.7345,0.806,0.8773,0.9665,1.0733,1.1632,1.252,1.323,1.3591,1.3945,1.4299,1.4299,1.4299,1.4299,1.4299,1.4299,1.4299,1.4299,1.4299,1.4299,1.4299,1.4299,1.4299,1.4299,1.4299,1.4299,1.4299,1.4299,1.4299,1.4299,1.4299,1.4299,1.4299,1.4299,1.4299,1.4299,1.4299,1.4299,1.4299,1.4299,1.4299,1.4299,1.4299,1.4299,1.4299,1.4299,1.4299,0.0,0.0,0.0,0.0,0.0,0.0,0.0,0.0,0.0,0.0,0.0,0.0,0.0,0.0,0.0,0.0,0.0,0.0,0.0,0.0,0.0,0.0,0.0,0.0,0.0,0.1616,0.2694,0.2694,0.1975,0.1795,0.2515,0.1795,0.1257,0.1257,0.1257,0.1436,0.1616,0.3231,0.4128,0.3949,0.3949,0.3949,0.4128,0.4845,0.5383,0.5562,0.5562,0.5562,0.5562,0.5562,0.5562,0.5562,0.5562,0.5918,0.6276,0.6454,0.6988,0.7699,0.7699,0.806,0.8595,0.9487,0.8769,0.7699,0.7699,0.8769,0.9838,1.0372,1.1266,1.2165,1.323,1.3413,1.3591,1.4122,1.4299,1.4299,1.4299,1.4299,1.4299,1.4299,1.4299,1.4299,1.4299,1.4299,1.4299,1.4299,1.4299,1.4299,1.4299,1.4299,1.4299,1.4299,1.4299,1.4299,1.4299,1.4299,1.4299,1.4299,1.4299,1.4299,1.4299,1.4299,1.4299,1.4299,1.4299,1.4299,1.4299,1.4299,1.4299,1.4299,1.4299,1.4299,0.0,0.0,0.0,0.0,0.0,0.0,0.0,0.0,0.0,0.0,0.0,0.0,0.0,0.0,0.0,0.0,0.0,0.0,0.0,0.0,0.0,0.0,0.1075,0.0,0.0,0.0,0.3053,0.3769,0.3949,0.4128,0.4487,0.359,0.3231,0.3231,0.3231,0.3411,0.3947,0.4845,0.5204,0.5204,0.5204,0.5383,0.5559,0.6097,0.6454,0.6988,0.6988,0.7167,0.7527,0.7527,0.7527,0.7527,0.7527,0.7527,0.7881,0.8417,0.8769,0.9304,0.9843,1.0377,1.0916,1.1271,1.1094,1.0911,1.0555,1.0911,1.1449,1.1804,1.252,1.3053,1.3591,1.3768,1.4122,1.4299,1.4299,1.4299,1.4299,1.4299,1.4299,1.4299,1.4299,1.4299,1.4299,1.4299,1.4299,1.4299,1.4299,1.4299,1.4299,1.4299,1.4299,1.4299,1.4299,1.4299,1.4299,1.4299,1.4299,1.4299,1.4299,1.4299,1.4299,1.4299,1.4299,1.4299,1.4299,1.4299,1.4299,1.4299,1.4299,1.4299,1.4299,1.4299,0.0,0.0,0.0,0.0,0.0,0.0,0.0,0.0,0.0,0.0,0.0,0.0,0.0,0.0,0.0,0.0,0.0,0.0,0.0,0.0,0.0175,0.0717,0.0,0.0,0.0,0.3771,0.3949,0.4666,0.5562,0.5918,0.6097,0.5559,0.5201,0.4666,0.4845,0.5204,0.5918,0.6276,0.6276,0.6276,0.6476,0.6845,0.7204,0.7585,0.7952,0.8668,0.9003,0.9169,0.9532,0.95,0.9491,0.9491,0.9491,0.9491,0.9669,1.0377,1.0733,1.0911,1.1627,1.2165,1.2343,1.252,1.2875,1.3053,1.2875,1.2698,1.2698,1.3053,1.3413,1.3768,1.3768,1.4122,1.4299,1.4299,1.4299,1.4299,1.4299,1.4299,1.4299,1.4299,1.4299,1.4299,1.4299,1.4299,1.4299,1.4299,1.4299,1.4299,1.4299,1.4299,1.4299,1.4299,1.4299,1.4299,1.4299,1.4299,1.4299,1.4299,1.4299,1.4299,1.4299,1.4299,1.4299,1.4299,1.4299,1.4299,1.4299,1.4299,1.4299,1.4299,1.4299,1.4299,0.0,0.0,0.0,0.0,0.0,0.0,0.0,0.0,0.0,0.0,0.0,0.0,0.0,0.0,0.0,0.0,0.0,0.0,0.0,0.0,0.0701,0.0,0.0,0.3593,0.5575,0.5747,0.5741,0.5741,0.6097,0.663,0.7167,0.7699,0.7167,0.5741,0.6276,0.6454,0.6454,0.7342,0.7877,0.7877,0.8509,0.8734,0.8738,0.9922,1.0335,1.033,1.131,1.1623,1.1612,1.1498,1.1455,1.1455,1.1455,1.1632,1.2165,1.2165,1.252,1.2875,1.2875,1.2875,1.3053,1.3407,1.3591,1.3768,1.4122,1.3945,1.3591,1.3591,1.3945,1.4299,1.4299,1.4299,1.4299,1.4299,1.4299,1.4299,1.4299,1.4299,1.4299,1.4299,1.4299,1.4299,1.4299,1.4299,1.4299,1.4299,1.4299,1.4299,1.4299,1.4299,1.4299,1.4299,1.4299,1.4299,1.4299,1.4299,1.4299,1.4299,1.4299,1.4299,1.4299,1.4299,1.4299,1.4299,1.4299,1.4299,1.4299,1.4299,1.4299,1.4299,1.4299,1.4299,0.0,0.0,0.0,0.0,0.0,0.0,0.0,0.0,0.0,0.0,0.0,0.0,0.0,0.0,0.0,0.0,0.0,0.0,0.0,0.0,0.0,0.2867,0.3233,0.4128,0.0,0.0,0.6454,0.663,0.806,0.8977,0.9221,1.0126,0.9586,0.779,0.7967,0.8356,0.9143,0.9507,0.9871,1.0599,1.0821,1.1018,1.1383,1.1792,1.1991,1.2352,1.2677,1.2841,1.2841,1.28,1.2782,1.2782,1.2782,1.2782,1.2957,1.322,1.3368,1.3534,1.38,1.3945,1.3945,1.3945,1.4122,1.4122,1.4299,1.4122,1.4122,1.4122,1.4122,1.4299,1.4299,1.4299,1.4299,1.4299,1.4299,1.4299,1.4299,1.4299,1.4299,1.4299,1.4299,1.4299,1.4299,1.4299,1.4333,1.4428,1.4441,1.4482,1.4584,1.4597,1.4597,1.4597,1.4597,1.4516,1.4319,1.4299,1.4299,1.4299,1.4299,1.4299,1.4299,1.4299,1.4299,1.4299,1.4299,1.4299,1.4299,1.4299,1.4299,1.4299,1.4299,1.4299,0.0,0.0,0.0,0.0,0.0,0.0,0.0,0.0,0.0,0.0,0.0,0.0,0.0,0.0,0.0,0.0,0.0,0.0,0.0,0.0,0.0,0.3225,0.0,0.0,0.0,0.6991,0.7702,0.8234,0.9876,1.1004,1.1076,1.1848,1.1716,1.0663,1.0259,1.0638,1.1258,1.1441,1.1808,1.2358,1.2409,1.2616,1.2984,1.3216,1.3419,1.3789,1.3929,1.3903,0.0,1.3846,1.3821,1.3821,1.3821,1.3821,1.3814,1.4088,1.4055,1.4223,1.4316,1.4468,1.4468,1.4468,1.4468,1.4468,1.4468,1.4387,1.4299,1.4299,1.4299,1.4299,1.4299,1.4299,1.4299,1.4299,1.4299,1.4299,1.4299,1.4299,1.4299,1.4299,1.4346,1.438,1.438,1.4428,1.4496,1.4584,1.4597,1.4631,1.4726,1.474,1.474,1.474,1.474,1.4665,1.4482,1.4414,1.4353,1.4306,1.4299,1.4299,1.4299,1.4299,1.4299,1.4299,1.4299,1.4299,1.4299,1.4299,1.4299,1.4299,1.4299,1.4299,0.0,0.0,0.0,0.0,0.0,0.0,0.0,0.0,0.0,0.0,0.0,0.0,0.016,0.0162,0.0164,0.0165,0.0169,0.0,0.0,0.2811,0.0,0.0,0.5562,0.0,0.6633,0.8417,0.9665,1.0209,1.1558,1.2536,1.2554,1.3035,1.3536,1.3672,1.3002,1.2753,1.2747,1.312,1.3486,1.3486,1.3616,1.3678,1.3684,1.4177,1.4422,1.4416,1.4859,1.4984,1.4977,1.4828,1.4774,1.4774,1.4774,1.4774,1.4767,1.476,1.4753,1.4753,1.474,1.474,1.474,1.474,1.474,1.474,1.474,1.455,1.4333,1.4333,1.4333,1.4333,1.4333,1.4333,1.4333,1.4333,1.4333,1.4333,1.4333,1.4333,1.4333,1.4333,1.4434,1.4529,1.4529,1.4645,1.474,1.4753,1.4753,1.476,1.4767,1.4774,1.4774,1.4774,1.4774,1.4767,1.476,1.4618,1.4468,1.4326,1.4319,1.4312,1.4299,1.4299,1.4299,1.4299,1.4299,1.4299,1.4299,1.4299,1.4299,1.4299,1.4299,1.4299,0.0,0.0,0.0,0.0,0.0,0.0,0.0,0.0,0.0,0.0,0.0,0.0,0.1779,0.2128,0.1821,0.1171,0.0,0.0,0.1737,0.0,0.0,0.5741,0.6279,0.717,0.8417,0.966,1.0763,1.1754,1.2867,1.3525,1.3922,1.4343,1.4613,1.4752,1.4719,1.4326,1.3952,1.4139,1.4326,1.4706,1.4739,1.4752,1.4759,1.4979,1.4993,1.4993,1.5147,1.5133,1.5126,1.5092,1.5079,1.5079,1.5079,1.5079,1.5065,1.4957,1.4916,1.4903,1.478,1.474,1.474,1.474,1.474,1.474,1.474,1.4692,1.4638,1.4638,1.4638,1.4638,1.4638,1.4638,1.4638,1.4638,1.4638,1.4638,1.4638,1.4638,1.4638,1.4638,1.4665,1.4685,1.4685,1.4713,1.478,1.4896,1.4916,1.4957,1.5065,1.5079,1.5079,1.5079,1.5079,1.5031,1.493,1.4774,1.4624,1.4468,1.4462,1.4414,1.4306,1.4299,1.4299,1.4299,1.4299,1.4299,1.4299,1.4299,1.4299,1.4299,1.4299,1.4299,0.0,0.0,0.0,0.0,0.0,0.0,0.0,0.0,0.0,0.0,0.0,0.0,0.0,0.0,0.0,0.0,0.2737,0.0,0.0,0.0,0.5562,0.6815,0.717,0.806,0.0,1.0957,1.1911,1.2879,1.3913,1.4428,1.4587,1.4845,1.5106,1.5181,1.5181,1.4993,1.4805,1.4805,1.4993,1.5181,1.5181,1.5181,1.5181,1.5181,1.5181,1.5181,1.5181,1.5181,1.5181,1.5181,1.5181,1.5181,1.5181,1.5181,1.5174,1.5099,1.5065,1.5059,1.497,1.4943,1.4943,1.4943,1.4943,1.4943,1.4943,1.4943,1.4916,1.478,1.474,1.474,1.474,1.474,1.474,1.474,1.474,1.474,1.474,1.474,1.474,1.474,1.4794,1.4848,1.4848,1.4903,1.497,1.5059,1.5065,1.5099,1.5174,1.5181,1.5181,1.5181,1.5181,1.5153,1.5072,1.4991,1.4848,1.4631,1.4618,1.455,1.4407,1.4394,1.4367,1.4299,1.4299,1.4299,1.4299,1.4299,1.4299,1.4299,1.4299,1.4299,0.0,0.0,0.0,0.0,0.0,0.0,0.0,0.0,0.0,0.0,0.0,0.0,0.0,0.0,0.0,0.0,0.0,0.0,0.5725,0.6458,0.6994,0.7524,0.8417,0.9491,1.0753,1.1922,1.2903,1.3855,1.4638,1.4977,1.5004,1.512,1.5181,1.5181,1.5181,1.5181,1.5181,1.5181,1.5181,1.5181,1.5181,1.5181,1.5181,1.5181,1.5181,1.5181,1.5181,1.5181,1.5181,1.5181,1.5181,1.5181,1.5181,1.5181,1.5181,1.5181,1.5181,1.5181,1.5181,1.5181,1.5181,1.5181,1.5181,1.5181,1.5181,1.5181,1.5126,1.4875,1.4808,1.4808,1.4808,1.4808,1.4808,1.4808,1.4808,1.4808,1.4808,1.4808,1.4808,1.4808,1.4916,1.5004,1.5004,1.5106,1.5181,1.5181,1.5181,1.5181,1.5181,1.5181,1.5181,1.5181,1.5181,1.5181,1.5181,1.5181,1.5072,1.4821,1.4787,1.4699,1.4516,1.4509,1.4441,1.4306,1.4299,1.4299,1.4299,1.4299,1.4299,1.4299,1.4299,1.4299,0.0,0.0,0.0,0.0,0.0,0.0,0.0,0.0,0.0,0.0,0.0,0.0,0.0,0.37,0.392,0.0,0.0,0.5836,0.0,0.0,0.7524,0.8773,0.0,1.0768,1.1945,1.3052,1.3894,1.4698,1.4943,1.5025,1.5147,1.5167,1.5181,1.5181,1.5181,1.5181,1.5181,1.5181,1.5181,1.5181,1.5181,1.5181,1.5181,1.5181,1.5181,1.5181,1.5181,1.5181,1.5181,1.5181,1.5181,1.5181,1.5181,1.5181,1.5181,1.5181,1.5181,1.5181,1.5181,1.5181,1.5181,1.5181,1.5181,1.5181,1.5181,1.5181,1.5174,1.5126,1.5113,1.5113,1.5113,1.5113,1.5113,1.5113,1.5113,1.5113,1.5113,1.5113,1.5113,1.5113,1.5133,1.5153,1.5153,1.5167,1.5181,1.5181,1.5181,1.5181,1.5181,1.5181,1.5181,1.5181,1.5181,1.5181,1.5181,1.5181,1.516,1.512,1.5004,1.4808,1.4523,1.4509,1.4441,1.4306,1.4299,1.4299,1.4299,1.4299,1.4299,1.4299,1.4299,1.4299,0.0,0.0,0.0,0.0,0.0,0.0315,0.1267,0.0,0.0,0.0,0.0,0.0,0.0,0.0,0.4979,0.6249,0.0,0.7485,0.823,0.8591,0.913,0.0,0.0,1.2028,1.3052,1.3681,1.4179,1.4957,1.5038,1.5113,1.5181,1.5181,1.5181,1.5181,1.5181,1.5181,1.5181,1.5181,1.5181,1.5181,1.5181,1.5181,1.5181,1.5181,1.5181,1.5181,1.5181,1.5181,1.5181,1.5181,1.5181,1.5181,1.5181,1.5181,1.5181,1.5181,1.5181,1.5181,1.5181,1.5181,1.5181,1.5181,1.5181,1.5181,1.5181,1.5181,1.5181,1.5181,1.5181,1.5181,1.5181,1.5181,1.5181,1.5181,1.5181,1.5181,1.5181,1.5181,1.5181,1.5181,1.5181,1.5181,1.5181,1.5181,1.5181,1.5181,1.5181,1.5181,1.5181,1.5181,1.5181,1.5181,1.5181,1.5181,1.5181,1.5181,1.5181,1.5181,1.5052,1.4909,1.4767,1.4597,1.4482,1.4414,1.434,1.4299,1.4299,1.4299,1.4299,1.4299,1.4299,1.4299,0.0,0.0,0.0157,0.0473,0.0,0.1107,0.0,0.0,0.0,0.0,0.0,0.0,0.0,0.6145,0.0,0.8117,0.8732,0.9313,0.9843,1.0377,1.0916,1.1632,1.2188,1.2973,1.3823,1.4153,1.4487,1.5011,1.512,1.5181,1.5181,1.5181,1.5181,1.5181,1.5181,1.5181,1.5181,1.5181,1.5181,1.5181,1.5181,1.5181,1.5181,1.5181,1.5181,1.5181,1.5181,1.5181,1.5181,1.5181,1.5181,1.5181,1.5181,1.5181,1.5181,1.5181,1.5181,1.5181,1.5181,1.5181,1.5181,1.5181,1.5181,1.5181,1.5181,1.5181,1.5181,1.5181,1.5181,1.5181,1.5181,1.5181,1.5181,1.5181,1.5181,1.5181,1.5181,1.5181,1.5181,1.5181,1.5181,1.5181,1.5181,1.5181,1.5181,1.5181,1.5181,1.5181,1.5181,1.5181,1.5181,1.5181,1.5181,1.5181,1.5181,1.5181,1.5181,1.5181,1.5079,1.5004,1.497,1.4746,1.4584,1.4516,1.4407,1.4333,1.4299,1.4299,1.4299,1.4299,1.4299,1.4299,0.0,0.0,0.0472,0.2071,0.0,0.0,0.4803,0.0,0.0,0.0,0.0,0.0,0.0,0.7984,0.9184,0.9815,1.0199,1.0921,1.181,0.0,1.2165,1.2698,1.3337,1.3829,1.3977,1.4494,1.5011,1.5153,1.5174,1.5181,1.5181,1.5181,1.5181,1.5181,1.5181,1.5181,1.5181,1.5181,1.5181,1.5181,1.5181,1.5181,1.5181,1.5181,1.5181,1.5181,1.5181,1.5181,1.5181,1.5181,1.5181,1.5181,1.5181,1.5181,1.5181,1.5181,1.5181,1.5181,1.5181,1.5181,1.5181,1.5181,1.5181,1.5181,1.5181,1.5181,1.5181,1.5181,1.5181,1.5181,1.5181,1.5181,1.5181,1.5181,1.5181,1.5181,1.5181,1.5181,1.5181,1.5181,1.5181,1.5181,1.5181,1.5181,1.5181,1.5181,1.5181,1.5181,1.5181,1.5181,1.5181,1.5181,1.5181,1.5181,1.5181,1.5181,1.5181,1.5181,1.5174,1.5106,1.4977,1.495,1.4801,1.4516,1.4502,1.4434,1.4299,1.4299,1.4299,1.4299,1.4299,1.4299,0.1256,0.158,0.1908,0.2555,0.0,0.0,0.0,0.0,0.0,0.0,0.0,0.0,0.0,0.0,1.0786,1.125,1.1804,1.2165,1.252,1.2875,1.3084,1.3343,1.3938,1.443,1.4671,1.4936,1.5031,1.5174,1.5181,1.5181,1.5181,1.5181,1.5181,1.5181,1.5181,1.5181,1.5181,1.5181,1.5181,1.5181,1.5181,1.5181,1.5181,1.5181,1.5181,1.5181,1.5181,1.5181,1.5181,1.5181,1.5181,1.5181,1.5181,1.5181,1.5181,1.5181,1.5181,1.5181,1.5181,1.5181,1.5181,1.5181,1.5181,1.5181,1.5181,1.5181,1.5181,1.5181,1.5181,1.5181,1.5181,1.5181,1.5181,1.5181,1.5181,1.5181,1.5181,1.5181,1.5181,1.5181,1.5181,1.5181,1.5181,1.5181,1.5181,1.5181,1.5181,1.5181,1.5181,1.5181,1.5181,1.5181,1.5181,1.5181,1.5181,1.5181,1.5181,1.5181,1.5181,1.516,1.5106,1.5018,1.4916,1.4801,1.4611,1.4482,1.4434,1.434,1.4299,1.4299,1.4299,1.4299,0.221,0.2862,0.3045,0.3227,0.3925,0.0,0.0,0.0,0.0,0.0,0.0,0.0,0.0,0.0,0.0,0.0,1.2875,1.323,1.3236,1.3591,1.382,1.3951,1.437,1.4685,1.4943,1.5011,1.5079,1.5174,1.5181,1.5181,1.5181,1.5181,1.5181,1.5181,1.5181,1.5181,1.5181,1.5181,1.5181,1.5181,1.5181,1.5181,1.5181,1.5181,1.5181,1.5181,1.5181,1.5181,1.5181,1.5181,1.5208,1.5255,1.5255,1.5282,1.5323,1.5323,1.5323,1.5323,1.5323,1.5323,1.5323,1.5323,1.5323,1.5323,1.5323,1.5323,1.5323,1.5323,1.5323,1.5323,1.5323,1.5255,1.5181,1.5181,1.5181,1.5181,1.5181,1.5181,1.5181,1.5181,1.5181,1.5181,1.5181,1.5181,1.5181,1.5181,1.5181,1.5181,1.5181,1.5181,1.5181,1.5181,1.5181,1.5181,1.5181,1.5181,1.5181,1.5181,1.5181,1.5181,1.5181,1.5086,1.5018,1.497,1.4719,1.4557,1.4509,1.4367,1.4299,1.4299,1.4299,1.4299,0.2711,0.3362,0.4025,0.4445,0.5462,0.0,0.6802,0.0,0.0,0.0,0.0,0.0,0.0,0.0,0.0,1.3591,1.3591,1.3768,1.4299,1.4299,1.4353,1.4496,1.4652,1.4801,1.4957,1.5099,1.5181,1.5181,1.5181,1.5181,1.5181,1.5181,1.5181,1.5181,1.5181,1.5181,1.5181,1.5181,1.5181,1.5181,1.5181,1.5181,1.5181,1.5181,1.5181,1.5181,1.5187,1.5187,1.5187,1.5187,1.5276,1.5411,1.5411,1.5506,1.5642,1.5642,1.5642,1.5642,1.5642,1.5642,1.5642,1.5642,1.5642,1.5642,1.5642,1.5642,1.5642,1.5642,1.5642,1.5642,1.5642,1.5411,1.5187,1.5187,1.5187,1.5187,1.5181,1.5181,1.5181,1.5181,1.5181,1.5181,1.5181,1.5181,1.5181,1.5181,1.5181,1.5181,1.5181,1.5181,1.5181,1.5181,1.5181,1.5181,1.5181,1.5181,1.5181,1.5181,1.5181,1.5181,1.5181,1.5181,1.512,1.4977,1.4821,1.4665,1.4516,1.4373,1.4299,1.4299,1.4299,1.4299,0.3195,0.3723,0.0,0.5283,0.0,0.0,0.0,0.8025,0.0,0.0,0.0,1.2108,1.2814,0.0,0.0,1.3945,1.4122,1.4122,1.4299,1.4387,1.4502,1.4652,1.4808,1.4957,1.5106,1.516,1.5181,1.5181,1.5181,1.5181,1.5181,1.5181,1.5181,1.5181,1.5181,1.5181,1.5181,1.5181,1.5181,1.5181,1.5289,1.5289,1.5187,1.5296,1.5343,1.535,1.5459,1.5506,1.5506,1.5506,1.5527,1.5567,1.5567,1.5601,1.5642,1.5642,1.5642,1.5642,1.5642,1.5642,1.5642,1.5642,1.5642,1.5642,1.5642,1.5642,1.5642,1.5642,1.5642,1.5642,1.5642,1.5574,1.5506,1.5506,1.5506,1.5472,1.5364,1.5343,1.5309,1.5201,1.5181,1.5181,1.5181,1.5181,1.5181,1.5181,1.5181,1.5181,1.5181,1.5181,1.5181,1.5181,1.5181,1.5181,1.5181,1.5181,1.5181,1.5181,1.5181,1.5181,1.5181,1.5181,1.516,1.512,1.4977,1.4828,1.4672,1.4523,1.4394,1.4299,1.4299,1.4299,0.3699,0.0,0.0,0.0,0.0,0.0,0.0,0.0,0.0,0.0,0.0,1.2875,1.3591,1.3768,0.0,1.4299,1.4299,1.4319,1.4373,1.4455,1.459,1.4808,1.4916,1.5025,1.5167,1.5181,1.5181,1.5181,1.5181,1.5181,1.5181,1.5181,1.5181,1.5181,1.5181,1.5181,1.5181,1.5181,1.5215,1.5276,1.5364,1.5398,1.5364,1.5459,1.5499,1.5506,1.5601,1.5642,1.5642,1.5642,1.5676,1.5723,1.5723,1.5764,1.5811,1.5811,1.5811,1.5811,1.5811,1.5811,1.5811,1.5811,1.5811,1.5811,1.5811,1.5811,1.5811,1.5811,1.5811,1.5811,1.5811,1.5811,1.5784,1.5669,1.5642,1.5615,1.552,1.5499,1.5472,1.5377,1.5364,1.5364,1.5364,1.5364,1.5364,1.5364,1.5309,1.5276,1.5276,1.5221,1.5181,1.5181,1.5181,1.5181,1.5181,1.5181,1.5181,1.5181,1.5181,1.5181,1.5181,1.5181,1.5181,1.5181,1.5045,1.4923,1.4828,1.4618,1.4468,1.438,1.4326,1.4299,0.4385,0.0,0.0,0.0,0.0,0.0,0.0,0.0,0.0,0.0,0.0,1.3591,1.3591,1.3945,1.4299,1.4299,1.4299,1.4346,1.4489,1.4523,1.4645,1.4936,1.4984,1.5038,1.5167,1.5181,1.5181,1.5181,1.5181,1.5181,1.5181,1.5181,1.5181,1.5181,1.5181,1.5187,1.5201,1.5201,1.5282,1.5432,1.5445,1.5527,1.5655,1.5655,1.5662,1.5683,1.5683,1.5683,1.5683,1.5683,1.5757,1.5872,1.5872,1.5961,1.6083,1.6083,1.6083,1.6083,1.6083,1.6083,1.6083,1.6083,1.6083,1.6083,1.6083,1.6083,1.6083,1.6083,1.6083,1.6083,1.6083,1.6083,1.6015,1.5744,1.5683,1.5676,1.5662,1.5655,1.5655,1.5642,1.5642,1.5642,1.5642,1.5642,1.5642,1.5642,1.552,1.5432,1.5432,1.5309,1.5221,1.5208,1.5201,1.5201,1.5181,1.5181,1.5181,1.5181,1.5181,1.5181,1.5181,1.5181,1.5181,1.5181,1.5059,1.4984,1.497,1.4679,1.4523,1.4509,1.4367,1.4299,0.4926,0.6142,0.0,0.0,0.0,0.0,0.0,0.0,1.3198,1.3407,1.3591,1.3768,1.4122,1.4299,1.4299,1.4299,1.4299,1.4346,1.4489,1.4618,1.476,1.495,1.5072,1.5147,1.5181,1.5181,1.5181,1.5181,1.5181,1.5181,1.5181,1.5181,1.5181,1.5181,1.5181,1.5242,1.5357,1.5364,1.5438,1.5594,1.5703,1.5778,1.5805,1.5805,1.5872,1.5988,1.5988,1.5988,1.5988,1.5988,1.6001,1.6035,1.6035,1.6049,1.6083,1.6083,1.6083,1.6083,1.6083,1.6083,1.6083,1.6083,1.6083,1.6083,1.6083,1.6083,1.6083,1.6083,1.6083,1.6083,1.6083,1.6083,1.6062,1.6001,1.5988,1.5954,1.5832,1.5805,1.5778,1.5662,1.5642,1.5642,1.5642,1.5642,1.5642,1.5642,1.5608,1.5588,1.5588,1.556,1.5493,1.5371,1.5364,1.5309,1.5194,1.5181,1.5181,1.5181,1.5181,1.5181,1.5181,1.5181,1.5181,1.5181,1.5153,1.5079,1.497,1.478,1.4631,1.4509,1.4367,1.4299,0.5766,0.0,0.0,1.1119,0.0,1.3235,1.3735,1.3945,1.3945,1.3945,1.3945,1.3945,1.4299,1.4299,1.4299,1.4299,1.4353,1.4455,1.4597,1.4753,1.4903,1.5052,1.514,1.5181,1.5181,1.5181,1.5181,1.5181,1.5181,1.5181,1.5181,1.5255,1.5289,1.5289,1.5364,1.5438,1.552,1.552,1.5594,1.5744,1.5818,1.5893,1.5961,1.5961,1.6008,1.6083,1.6083,1.6083,1.6083,1.6083,1.6083,1.6083,1.6083,1.6083,1.6083,1.6083,1.6083,1.6083,1.6083,1.6083,1.6083,1.6083,1.6083,1.6083,1.6083,1.6083,1.6083,1.6083,1.6083,1.6083,1.6083,1.6083,1.6083,1.6083,1.6083,1.6062,1.5981,1.5961,1.594,1.5866,1.5852,1.5852,1.5852,1.5852,1.5852,1.5852,1.5791,1.5744,1.5744,1.5683,1.5608,1.5527,1.5452,1.5377,1.5296,1.5221,1.5181,1.5181,1.5181,1.5181,1.5181,1.5181,1.5181,1.5181,1.5181,1.5147,1.5072,1.4923,1.4774,1.4618,1.4468,1.4367,0.6605,0.0,1.0504,1.2613,1.3474,0.0,1.4272,1.4299,1.4299,1.4299,1.4299,1.4299,1.4299,1.4299,1.4299,1.4299,1.4421,1.4563,1.4719,1.4875,1.5025,1.5167,1.5181,1.5181,1.5181,1.5181,1.5181,1.5181,1.5181,1.5194,1.5221,1.5343,1.5425,1.5452,1.5574,1.5649,1.5676,1.5676,1.575,1.5893,1.5893,1.5961,1.6083,1.6083,1.6083,1.6083,1.6083,1.6083,1.6083,1.6083,1.6083,1.6083,1.6083,1.6083,1.6083,1.6083,1.6083,1.6083,1.6083,1.6083,1.6083,1.6083,1.6083,1.6083,1.6083,1.6083,1.6083,1.6083,1.6083,1.6083,1.6083,1.6083,1.6083,1.6083,1.6083,1.6083,1.6083,1.6083,1.6083,1.6083,1.6083,1.6083,1.6083,1.6083,1.6083,1.6083,1.5974,1.5893,1.5893,1.5791,1.5703,1.5676,1.556,1.5466,1.5411,1.5296,1.5208,1.5181,1.5181,1.5181,1.5181,1.5181,1.5181,1.5181,1.5181,1.5181,1.5181,1.5038,1.4903,1.4774,1.4597,1.4448,0.7686,0.0,1.2276,0.0,1.3806,1.4272,0.0,1.4299,1.4299,1.4299,1.4299,1.4299,1.4299,1.4299,1.4299,1.4299,1.4421,1.4563,1.4719,1.4875,1.5025,1.5167,1.5181,1.5181,1.5181,1.5181,1.5181,1.5181,1.5181,1.5242,1.5371,1.5398,1.5472,1.5601,1.5628,1.5696,1.5825,1.5825,1.59,1.6049,1.6049,1.6062,1.6083,1.6083,1.6083,1.6083,1.6083,1.6083,1.6083,1.6083,1.6083,1.6083,1.6083,1.6083,1.6083,1.6083,1.6083,1.6083,1.6083,1.6083,1.6083,1.6083,1.6083,1.6083,1.6083,1.6083,1.6083,1.6083,1.6083,1.6083,1.6083,1.6083,1.6083,1.6083,1.6083,1.6083,1.6083,1.6083,1.6083,1.6083,1.6083,1.6083,1.6083,1.6083,1.6083,1.6083,1.6062,1.6049,1.6049,1.6035,1.5974,1.5839,1.5805,1.5689,1.5432,1.5391,1.5323,1.5194,1.5181,1.5181,1.5181,1.5181,1.5181,1.5181,1.5181,1.5181,1.5181,1.5038,1.4964,1.4936,1.4645,1.4502,0.944,1.147,1.3019,0.0,1.4008,1.4299,1.4299,1.4299,1.4299,1.4299,1.4299,1.4299,1.4299,1.4299,1.4326,1.4407,1.4543,1.4692,1.4848,1.4997,1.5113,1.5174,1.5181,1.5181,1.5181,1.5181,1.5181,1.5181,1.5262,1.5343,1.5404,1.5567,1.5689,1.5757,1.5845,1.592,1.5981,1.5981,1.6015,1.6083,1.6083,1.6083,1.6083,1.6083,1.6083,1.6083,1.6083,1.6083,1.6083,1.6083,1.6083,1.6083,1.6083,1.6083,1.6083,1.6083,1.6083,1.6083,1.6083,1.6083,1.6083,1.6083,1.6083,1.6083,1.6083,1.6083,1.6083,1.6083,1.6083,1.6083,1.6083,1.6083,1.6083,1.6083,1.6083,1.6083,1.6083,1.6083,1.6083,1.6083,1.6083,1.6083,1.6083,1.6083,1.6083,1.6083,1.6083,1.6083,1.6083,1.6083,1.6056,1.5988,1.5906,1.5798,1.5669,1.5506,1.5384,1.5316,1.5228,1.5181,1.5181,1.5181,1.5181,1.5181,1.5181,1.5181,1.5181,1.512,1.5052,1.497,1.4835,1.4679,1.1233,1.2563,1.3369,1.3907,1.4217,1.4299,1.4299,1.4299,1.4299,1.4299,1.4299,1.4299,1.4299,1.4299,1.4346,1.4489,1.4638,1.4794,1.495,1.5092,1.5181,1.5181,1.5181,1.5181,1.5181,1.5181,1.5201,1.5235,1.5343,1.5445,1.552,1.573,1.5872,1.5906,1.6022,1.6083,1.6083,1.6083,1.6083,1.6083,1.6083,1.6083,1.6083,1.6083,1.6083,1.6083,1.6083,1.6083,1.6083,1.6083,1.6083,1.6083,1.6083,1.6083,1.6083,1.6083,1.6083,1.6083,1.6083,1.6083,1.6083,1.6083,1.6083,1.6083,1.6083,1.6083,1.6083,1.6083,1.6083,1.6083,1.6083,1.6083,1.6083,1.6083,1.6083,1.6083,1.6083,1.6083,1.6083,1.6083,1.6083,1.6083,1.6083,1.6083,1.6083,1.6083,1.6083,1.6083,1.6083,1.6083,1.6083,1.6083,1.5981,1.5893,1.5859,1.5649,1.5493,1.5418,1.5303,1.5221,1.5181,1.5181,1.5181,1.5181,1.5181,1.5181,1.5181,1.5181,1.5126,1.5025,1.4991,1.4848,1.2557,1.3146,1.3395,1.4035,1.4292,1.4299,1.4299,1.4299,1.4299,1.4299,1.4299,1.4299,1.4299,1.4299,1.4346,1.4489,1.4638,1.4794,1.495,1.5092,1.5181,1.5181,1.5181,1.5181,1.5181,1.5181,1.5242,1.5391,1.5404,1.5533,1.5818,1.5845,1.592,1.6069,1.6076,1.6083,1.6083,1.6083,1.6083,1.6083,1.6083,1.6083,1.6083,1.6083,1.6083,1.6083,1.6083,1.6083,1.6083,1.6083,1.6083,1.6083,1.6083,1.6083,1.6083,1.6083,1.6083,1.6083,1.6083,1.6083,1.6083,1.6083,1.6083,1.6083,1.6083,1.6083,1.6083,1.6083,1.6083,1.6083,1.6083,1.6083,1.6083,1.6083,1.6083,1.6083,1.6083,1.6083,1.6083,1.6083,1.6083,1.6083,1.6083,1.6083,1.6083,1.6083,1.6083,1.6083,1.6083,1.6083,1.6083,1.6083,1.6076,1.6008,1.5866,1.5839,1.571,1.5432,1.5404,1.5337,1.5187,1.5181,1.5181,1.5181,1.5181,1.5181,1.5181,1.5181,1.5181,1.5167,1.5031,1.4964,1.293,1.3395,1.3867,1.4245,1.4299,1.4299,1.4299,1.4299,1.4299,1.4299,1.4299,1.4299,1.4299,1.4299,1.438,1.4618,1.4706,1.4828,1.5072,1.5153,1.5181,1.5181,1.5181,1.5181,1.5181,1.5181,1.5248,1.5398,1.5499,1.5642,1.5845,1.5947,1.6029,1.6083,1.6083,1.6083,1.6083,1.6083,1.6083,1.6083,1.6083,1.6083,1.6083,1.6083,1.6083,1.6083,1.6083,1.6083,1.6083,1.6083,1.6083,1.6083,1.6083,1.6083,1.6083,1.6083,1.6083,1.6083,1.6083,1.6083,1.6083,1.6083,1.6083,1.6083,1.6083,1.6083,1.6083,1.6083,1.6083,1.6083,1.6083,1.6083,1.6083,1.6083,1.6083,1.6083,1.6083,1.6083,1.6083,1.6083,1.6083,1.6083,1.6083,1.6083,1.6083,1.6083,1.6083,1.6083,1.6083,1.6083,1.6083,1.6083,1.6083,1.6056,1.6001,1.5906,1.5771,1.5567,1.5466,1.5343,1.5187,1.5181,1.5181,1.5181,1.5181,1.5181,1.5181,1.5181,1.5181,1.5181,1.5126,1.5059,1.335,0.0,1.4109,1.4265,1.4299,1.4299,1.4299,1.4299,1.4299,1.4299,1.4299,1.4299,1.4299,1.4299,1.4394,1.4692,1.474,1.4841,1.514,1.5181,1.5181,1.5181,1.5181,1.5181,1.5181,1.5228,1.5323,1.5479,1.5628,1.5778,1.592,1.6029,1.6083,1.6083,1.6083,1.6083,1.6083,1.6083,1.6083,1.6083,1.6083,1.6083,1.6083,1.6083,1.6083,1.6083,1.6083,1.6083,1.6083,1.6083,1.6083,1.6083,1.6083,1.6083,1.6083,1.6083,1.6083,1.6083,1.6083,1.6083,1.6083,1.6083,1.6083,1.6083,1.6083,1.6083,1.6083,1.6083,1.6083,1.6083,1.6083,1.6083,1.6083,1.6083,1.6083,1.6083,1.6083,1.6083,1.6083,1.6083,1.6083,1.6083,1.6083,1.6083,1.6083,1.6083,1.6083,1.6083,1.6083,1.6083,1.6083,1.6083,1.6083,1.6083,1.6083,1.5988,1.5866,1.5723,1.5574,1.5418,1.5262,1.5396,1.5375,1.5375,1.5556,1.5744,1.5744,1.5368,1.5181,1.5181,1.5181,1.5133,0.0,0.0,0.0,1.4265,1.4299,1.4299,1.4299,1.4299,1.4299,1.4299,1.4299,1.4299,1.4299,1.4299,1.4394,1.4692,1.474,1.4841,1.514,1.5181,1.5181,1.5181,1.5181,1.5181,1.5181,1.5323,1.5472,1.5628,1.5771,1.592,1.6076,1.6083,1.6083,1.6083,1.6083,1.6083,1.6083,1.6083,1.6083,1.6083,1.6083,1.6083,1.6083,1.6083,1.6083,1.6083,1.6083,1.6083,1.6083,1.6083,1.6083,1.6083,1.6083,1.6083,1.6083,1.6083,1.6083,1.6083,1.6083,1.6083,1.6083,1.6083,1.6083,1.6083,1.6083,1.6083,1.6083,1.6083,1.6083,1.6083,1.6083,1.6083,1.6083,1.6083,1.6083,1.6083,1.6083,1.6083,1.6083,1.6083,1.6083,1.6083,1.6083,1.6083,1.6083,1.6083,1.6083,1.6083,1.6083,1.6083,1.6083,1.6083,1.6083,1.6083,1.6083,1.6083,1.6015,1.5866,1.5716,1.5567,1.5418,1.5835,1.5938,1.5938,1.6494,1.6681,1.6681,1.5744,1.5181,1.5181,1.5181,1.5181,1.4048,0.0,0.0,0.0,0.0,0.0,1.4299,1.4299,1.4299,1.4299,1.4299,1.4299,1.4299,1.4299,1.4394,1.4692,1.474,1.4841,1.514,1.5181,1.5181,1.5181,1.5181,1.5181,1.5181,1.5323,1.5472,1.5628,1.5771,1.592,1.6076,1.6083,1.6083,1.6083,1.6083,1.6083,1.6083,1.6083,1.6083,1.6083,1.6083,1.6083,1.6083,1.6083,1.6083,1.6083,1.6083,1.6083,1.6083,1.6083,1.6083,1.6083,1.6083,1.6083,1.6083,1.6083,1.6083,1.6083,1.6083,1.6083,1.6083,1.6083,1.6083,1.6083,1.6083,1.6083,1.6083,1.6083,1.6083,1.6083,1.6083,1.6083,1.6083,1.6083,1.6083,1.6083,1.6083,1.6083,1.6083,1.6083,1.6083,1.6083,1.6083,1.6083,1.6083,1.6083,1.6083,1.6083,1.6083,1.6083,1.6083,1.6083,1.6083,1.6083,1.6083,1.6083,1.6015,1.5866,1.6105,1.6138,1.5983,1.6582,1.7063,1.7063,1.7429,1.7803,1.7803,1.6868,1.6306,1.6306,1.5931,1.5556,0.0,0.0,0.0,0.0,0.0,0.0,1.4299,1.4299,1.4299,1.4299,1.4299,1.4299,1.4299,1.4299,1.4373,1.4604,1.4699,1.4841,1.514,1.5181,1.5181,1.5181,1.5181,1.5181,1.5181,1.5377,1.554,1.5635,1.5832,1.5988,1.6076,1.6083,1.6083,1.6083,1.6083,1.6083,1.6083,1.6083,1.6083,1.6083,1.6083,1.6083,1.6083,1.6083,1.6083,1.6083,1.6083,1.6083,1.6083,1.6083,1.6083,1.6083,1.6083,1.6083,1.6083,1.6083,1.6083,1.6083,1.6083,1.6083,1.6083,1.6083,1.6083,1.6083,1.6083,1.6083,1.6083,1.6083,1.6083,1.6083,1.6083,1.6083,1.6083,1.6083,1.6083,1.6083,1.6083,1.6083,1.6083,1.6083,1.6083,1.6083,1.6083,1.6083,1.6083,1.6083,1.6083,1.6083,1.6083,1.6083,1.6083,1.6083,1.6083,1.6083,1.6083,1.6083,1.6241,1.6342,1.6391,1.6623,1.684,1.7624,1.8249,1.8363,1.9099,1.9471,1.9471,1.7981,1.7242,1.7055,1.6494,1.6119,0.0,0.0,0.0,0.0,1.4299,0.0,1.4299,1.4299,1.4299,1.4299,1.4299,1.4299,1.4299,1.4299,1.4346,1.4489,1.4638,1.4835,1.512,1.5174,1.5181,1.5181,1.5181,1.5181,1.5181,1.5459,1.5642,1.5642,1.5913,1.6083,1.6083,1.6083,1.6083,1.6083,1.6083,1.6083,1.6083,1.6083,1.6083,1.6083,1.6083,1.6083,1.6083,1.6083,1.6083,1.6083,1.6083,1.6083,1.6083,1.6096,1.6096,1.6083,1.6083,1.6083,1.6083,1.6103,1.6103,1.611,1.6123,1.613,1.613,1.611,1.6103,1.6103,1.609,1.6083,1.6083,1.6083,1.6083,1.6083,1.6083,1.6083,1.6083,1.6083,1.6083,1.6083,1.6083,1.6083,1.6083,1.6083,1.6083,1.6083,1.6083,1.6083,1.6083,1.6083,1.6083,1.6083,1.6083,1.6282,1.6282,1.6282,1.6282,1.6282,1.6282,1.6282,1.6474,1.707,1.6918,1.7352,1.8167,1.912,1.968,2.0055,2.0964,2.151,2.151,1.9471,1.8176,1.7616,1.7242,1.7055,0.0,0.0,0.0,0.0,0.0,0.0,1.4299,1.4299,1.4299,1.4299,1.4299,1.4299,1.4299,1.4299,1.4346,1.4489,1.4638,1.4801,1.4984,1.5113,1.5181,1.5181,1.5181,1.5181,1.5181,1.5459,1.5642,1.5642,1.5913,1.6083,1.6083,1.6083,1.6083,1.6083,1.6083,1.6083,1.6083,1.6083,1.6083,1.6083,1.6083,1.6083,1.6083,1.6083,1.6083,1.6083,1.6083,1.6083,1.609,1.6218,1.6191,1.6083,1.6083,1.6083,1.6096,1.6218,1.6266,1.6279,1.6395,1.6435,1.6415,1.63,1.6266,1.6246,1.6117,1.6083,1.6083,1.6083,1.6083,1.6083,1.6083,1.6083,1.6083,1.6083,1.6083,1.6083,1.6083,1.6083,1.6282,1.6672,1.6474,1.6083,1.6083,1.6083,1.6083,1.6083,1.6083,1.6282,1.6672,1.6672,1.6871,1.7275,1.7474,1.7474,1.7474,1.7474,1.7665,1.8061,1.849,1.8964,1.9885,2.109,2.1808,2.232,2.3077,2.3536,2.3536,2.151,2.0028,1.9285,1.9091,1.8727,0.0,0.0,0.0,1.4299,0.0,0.0,0.0,1.4299,1.4299,1.4299,1.4299,1.4299,1.4299,1.4299,1.4326,1.4394,1.4529,1.4679,1.4835,1.5045,1.5181,1.5181,1.5181,1.5181,1.5181,1.5391,1.5588,1.5737,1.5954,1.6083,1.6083,1.6083,1.6083,1.6083,1.6083,1.6083,1.6083,1.6083,1.6083,1.6083,1.6083,1.6083,1.6083,1.6083,1.6123,1.6198,1.6198,1.6239,1.6307,1.6381,1.6368,1.63,1.63,1.63,1.6313,1.6388,1.6415,1.6429,1.6497,1.6524,1.651,1.6435,1.6415,1.6388,1.6239,1.6144,1.6083,1.6083,1.6083,1.6083,1.6083,1.6083,1.6083,1.6083,1.6083,1.6083,1.6474,1.6474,1.6672,1.7268,1.7268,1.7268,1.6878,1.6878,1.6878,1.6878,1.6878,1.7077,1.7268,1.7466,1.7863,1.8061,1.8259,1.8449,1.8449,1.8449,1.8845,1.9643,1.9748,2.0632,2.2066,2.2823,2.3738,2.4813,2.5307,2.5548,2.5548,2.4441,2.3148,2.15,2.0945,2.0584,0.0,0.0,0.0,0.0,0.0,1.4299,0.0,0.0,0.0,1.4299,1.4299,1.4299,1.4299,1.4299,1.4299,1.4299,1.4421,1.4563,1.4719,1.497,1.5153,1.5181,1.5181,1.5181,1.5181,1.535,1.5567,1.5832,1.5995,1.6083,1.6083,1.6083,1.6083,1.6083,1.6083,1.6083,1.6083,1.6083,1.6083,1.6083,1.6083,1.6096,1.6123,1.6123,1.6205,1.6347,1.6347,1.6415,1.6524,1.6551,1.6564,1.6564,1.653,1.6524,1.6524,1.6558,1.6564,1.6571,1.6598,1.6612,1.6605,1.6571,1.6544,1.6497,1.6354,1.6225,1.6123,1.609,1.6083,1.6083,1.6083,1.6083,1.6083,1.6083,1.6083,1.6275,1.6871,1.7062,1.7459,1.8061,1.8655,1.8655,1.8061,1.7863,1.8061,1.8061,1.8061,1.8061,1.8259,1.8655,1.9042,1.924,1.9635,1.9824,1.9824,1.9824,2.0218,2.1406,2.1406,2.2312,2.4063,2.4779,2.5683,2.7057,2.7196,2.7414,2.7365,2.7365,2.6095,2.3719,2.2984,2.2432,0.0,0.0,0.0,0.0,1.4299,0.0,0.0,0.0,1.4299,1.4299,0.0,1.4299,1.4299,0.0,0.0,1.4299,1.4421,1.4563,1.4719,1.4889,1.5038,1.5167,1.5181,1.5181,1.5181,1.5445,1.5683,1.5839,1.5995,1.6083,1.6083,1.6083,1.6083,1.6083,1.6083,1.6083,1.6083,1.6083,1.6083,1.6083,1.6083,1.6151,1.6286,1.6286,1.6361,1.6497,1.6497,1.651,1.653,1.6666,1.672,1.6714,1.6571,1.6524,1.6537,1.6673,1.672,1.6741,1.6883,1.6931,1.6904,1.6768,1.6632,1.6497,1.6354,1.63,1.6252,1.6123,1.6083,1.6083,1.6083,1.6083,1.6083,1.6083,1.6474,1.6871,1.6864,1.7657,1.8647,1.9626,2.0226,2.0038,1.8655,1.8845,1.9042,1.9042,1.9042,1.9437,2.0432,2.0432,2.0826,2.1799,2.1995,2.1995,2.1995,2.1995,2.2387,2.3561,2.3561,2.432,2.5851,2.7175,2.8144,2.8711,2.8673,2.8534,2.8294,2.8294,2.7377,2.5377,2.5195,2.4646,0.0,0.0,0.0,0.0,0.0,0.0,1.4299,0.0,1.4299,0.0,0.0,0.0,0.0,0.0,0.0,0.0,1.4346,1.4468,1.4706,1.4794,1.4923,1.5153,1.5181,1.5181,1.5181,1.5377,1.5567,1.5716,1.5866,1.5988,1.6076,1.6083,1.6083,1.6083,1.6083,1.6083,1.6083,1.6083,1.6123,1.6212,1.6212,1.6293,1.6435,1.6435,1.6517,1.6653,1.6653,1.6707,1.6795,1.6856,1.6883,1.6876,1.6815,1.6788,1.6795,1.6863,1.6883,1.6897,1.6958,1.6978,1.6971,1.6904,1.6781,1.6646,1.6585,1.6503,1.6402,1.6252,1.6212,1.6191,1.6103,1.6275,1.6474,1.6474,1.7268,1.7855,1.8251,1.9042,2.0226,2.1201,2.1995,2.2573,2.2172,2.1594,2.1005,2.1005,2.1406,2.1603,2.2191,2.2769,2.316,2.3746,2.3951,2.4156,2.4156,2.4156,2.473,2.5701,2.6669,2.7442,2.8019,2.9115,2.9619,2.9762,2.9951,2.9913,2.9637,2.9637,2.899,2.7739,2.7015,2.664,1.4299,0.0,0.0,0.0,0.0,0.0,0.0,0.0,0.0,0.0,1.4299,0.0,0.0,0.0,0.0,0.0,0.0,1.4448,1.4706,1.478,1.4896,1.5153,1.5181,1.5181,1.5181,1.5323,1.5472,1.5628,1.5771,1.592,1.6076,1.6083,1.6083,1.6083,1.6083,1.6083,1.6083,1.6083,1.6157,1.6307,1.6307,1.6408,1.6585,1.6585,1.6666,1.6815,1.6815,1.6876,1.6978,1.6978,1.6978,1.6978,1.6978,1.6978,1.6978,1.6978,1.6978,1.6978,1.6978,1.6978,1.6978,1.6978,1.6904,1.6802,1.6761,1.6673,1.6551,1.6408,1.6368,1.6334,1.6185,1.6536,1.6921,1.7077,1.8053,1.9042,1.9437,2.062,2.1995,2.2779,2.3951,2.4924,2.5496,2.433,2.317,2.317,2.3561,2.3951,2.4146,2.4914,2.5486,2.5679,2.6078,2.6294,2.6294,2.6294,2.6669,2.7646,2.8992,2.9567,2.9758,3.0342,3.0564,3.0674,3.0836,3.0768,3.0474,3.0394,3.0066,2.948,2.85,2.8101,1.4299,1.4299,0.0,1.4299,0.0,0.0,0.0,0.0,1.4299,0.0,0.0,0.0,0.0,0.0,0.0,0.0,0.0,0.0,0.0,1.4869,1.5018,1.5167,1.5181,1.5181,1.5181,1.5323,1.5472,1.5628,1.5771,1.592,1.6076,1.6083,1.6083,1.6083,1.6083,1.6083,1.6083,1.6083,1.6157,1.6307,1.6307,1.6463,1.6741,1.6741,1.6829,1.6971,1.6971,1.6978,1.6978,1.6978,1.6978,1.6978,1.6978,1.6978,1.6978,1.6978,1.6978,1.6978,1.6978,1.6978,1.6978,1.6978,1.6978,1.6944,1.6795,1.6748,1.6714,1.6558,1.6517,1.6483,1.6341,1.6703,1.7264,1.7511,1.8845,2.0021,2.062,2.2387,2.3951,2.4535,2.5895,2.7067,2.7646,2.6487,2.5324,2.5324,2.5324,2.5712,2.6863,2.7056,2.7442,2.8404,2.8404,2.8596,2.8596,2.8596,2.8788,2.9375,2.9746,3.0319,3.0916,3.0903,3.0949,3.1236,3.1223,3.1076,3.0782,3.0501,3.0354,3.0341,2.9493,2.8822,1.459,1.459,1.459,1.459,1.459,1.459,0.0,0.0,0.0,0.0,0.0,0.0,0.0,0.0,0.0,0.0,0.0,0.0,0.0,1.5018,1.5126,1.5174,1.5181,1.5181,1.5181,1.5228,1.5364,1.5622,1.5683,1.5818,1.6069,1.6083,1.6083,1.6083,1.6083,1.6083,1.6083,1.6185,1.6307,1.6449,1.6551,1.6707,1.6904,1.6904,1.6931,1.6978,1.6978,1.6978,1.6978,1.6978,1.6978,1.6978,1.6978,1.6978,1.6978,1.6978,1.6978,1.6978,1.6978,1.6978,1.6978,1.6978,1.6978,1.6971,1.6917,1.6904,1.687,1.6714,1.6673,1.6612,1.6773,1.7314,1.7873,1.8496,1.9832,2.121,2.2191,2.3951,2.5701,2.6669,2.7839,2.88,2.9171,2.898,2.8404,2.7634,2.7827,2.8224,2.8608,2.898,2.9171,2.9554,2.9554,2.9554,2.9554,2.9949,3.014,3.0331,3.0903,3.1284,3.1474,3.1474,3.1434,3.1517,3.1517,3.137,3.1076,3.0982,3.0835,3.0648,3.0358,2.9924,1.474,1.474,1.474,1.474,1.474,1.474,1.474,1.474,1.474,0.0,0.0,0.0,0.0,0.0,0.0,0.0,0.0,0.0,0.0,1.5126,1.5181,1.5181,1.5181,1.5181,1.5181,1.5181,1.5309,1.5615,1.5642,1.5771,1.6062,1.6083,1.6083,1.6083,1.6083,1.6083,1.6083,1.6232,1.6381,1.6524,1.6673,1.6829,1.6978,1.6978,1.6978,1.6978,1.6978,1.6978,1.6978,1.6978,1.6978,1.6978,1.6978,1.6978,1.6978,1.6978,1.6978,1.6978,1.6978,1.6978,1.6978,1.6978,1.6978,1.6978,1.6978,1.6978,1.6958,1.6863,1.7037,1.7176,1.7073,1.7798,1.8753,1.9495,2.121,2.2779,2.3951,2.5884,2.7442,2.8224,2.9184,2.9949,3.0331,3.0509,3.0319,2.9363,2.9363,2.9758,2.9949,3.014,3.0509,3.07,3.07,3.07,3.07,3.0903,3.1093,3.1093,3.1474,3.1664,3.1664,3.1664,3.1664,3.1664,3.1664,3.157,3.1383,3.1276,3.1129,3.0942,3.0835,3.0595]}]]